KC8P Weather Reports


Display with metric or nautical units.
time (UTC)temp
F
wind
direction
speed
MPH
gust
MPH
rain 1hr
in
rain 24hr
in
rain mn
in
humidity
%
barometer
mb
20260507153827 53 60 5.0 14.0 0.00 0.00 0.00 46 1012.1
20260507153738 53 324 4.0 14.0 0.00 0.00 0.00 46 1012.1
20260507153721 54 315 4.0 14.0 0.00 0.00 0.00 46 1012.1
20260507153632 53 317 2.0 14.0 0.00 0.00 0.00
20260507153615 54 298 5.0 14.0 0.00 0.00 0.00 45 1012.1
20260507153510 54 242 4.0 14.0 0.00 0.00 0.00 48 1012.4
20260507153455 53 245 1.0 14.0 0.00 0.00 0.00 47 1012.1
20260507153424 53 261 5.0 14.0 0.00 0.00 0.00 45 1012.1
20260507153404 53 317 2.0 14.0 0.00 0.00 0.00 47 1012.1
20260507153347 53 220 5.0 14.0 0.00 0.00 0.00 0.1
20260507153258 53 245 1.0 14.0 0.00 0.00 0.00 47 1012.1
20260507153232 53 19 0.0 14.0 0.00 0.00 0.00 47 1012.1
20260507153153 53 261 5.0 14.0 0.00 0.00 0.00 45 1012.1
20260507153131 54 259 3.0 11.0 0.00 0.00 0.00 46 1012.1
20260507153047 53 220 5.0 14.0 0.00 0.00 0.00 47 1012.1
20260507153031 54 323 2.0 9.0 0.00 0.00 0.00 48 1012.1
20260507152941 53 296 6.0 14.0 0.00 0.00 0.00 47 1012.1
20260507152836 54 259 3.0 11.0 0.00 0.00 0.00 46 1012.1
20260507152730 54 323 2.0 9.0 0.00 0.00 0.00 48 1012.1
20260507152623 54 177 7.0 9.0 0.00 0.00 0.00 46 1012.1
20260507152602 52 229 4.0 7.0 0.00 0.00 0.00 50 1011.8
20260507152517 54 207 3.0 8.0 0.00 0.00 0.00 44 1012.1
20260507152411 53 145 2.0 7.0 0.00 0.00 0.00 49 1012.1
20260507152307 53 233 2.0 7.0 0.00 0.00 0.00 48 1012.1
20260507152218 53 133 2.0 7.0 0.00 0.00 0.00 47 1012.1
20260507152201 53 133 2.0 7.0 0.00 0.00 0.00 47 1012.1
20260507152054 53 223 4.0 7.0 0.00 0.00 0.00 48 1012.1
20260507151948 53 227 2.0 7.0 0.00 0.00 0.00 47 1012.1
20260507151843 52 229 4.0 7.0 0.00 0.00 0.00 50 1011.8
20260507151737 52 218 4.0 7.0 0.00 0.00 0.00 50 1012.1
20260507151711 52 266 4.0 7.0 0.00 0.00 0.00 49 1012.1
20260507151632 52 107 4.0 7.0 0.00 0.00 0.00 48 1012.1
20260507151526 52 254 4.0 7.0 0.00 0.00 0.00 49 1011.8
20260507151420 52 248 1.0 7.0 0.00 0.00 0.00 49 1012.1
20260507151314 51 232 4.0 7.0 0.00 0.00 0.00 49 1012.1
20260507151208 52 126 2.0 7.0 0.00 0.00 0.00 50 1012.1
20260507151104 52 310 4.0 6.0 0.00 0.00 0.00 48 1012.4
20260507150958 53 319 4.0 6.0 0.00 0.00 0.00 49 1012.1
20260507150852 53 167 0.0 6.0 0.00 0.00 0.00 47 1012.1
20260507150747 53 241 1.0 6.0 0.00 0.00 0.00 49 1012.1
20260507150659 53 354 1.0 6.0 0.00 0.00 0.00 49 1012.1
20260507150641 53 149 2.0 6.0 0.00 0.00 0.00 49 1012.1
20260507150535 53 249 2.0 6.0 0.00 0.00 0.00 48 1012.1
20260507150428 53 245 2.0 6.0 0.00 0.00 0.00 50 1012.1
20260507150323 53 245 1.0 6.0 0.00 0.00 0.00 49 1012.1
20260507150217 53 78 0.0 6.0 0.00 0.00 0.00 49 1012.1
20260507150150 53 114 1.0 6.0 0.00 0.00 0.00 49 1012.1
20260507150114 53 336 1.0 6.0 0.00 0.00 0.00 50 1012.1
20260507150006 52 56 1.0 6.0 0.00 0.00 0.00 49 1012.1
20260507145900 52 336 4.0 8.0 0.00 0.00 0.00 49 1012.1
20260507145754 51 330 0.0 11.0 0.00 0.00 0.00 51 1011.8
20260507145649 52 223 0.0 11.0 0.00 0.00 0.00 49 1011.8
20260507145543 52 196 2.0 11.0 0.00 0.00 0.00 48 1012.1
20260507145438 52 298 3.0 11.0 0.00 0.00 0.00 48 1012.4
20260507145332 52 131 0.0 11.0 0.00 0.00 0.00 49 1012.1
20260507145227 52 256 1.0 11.0 0.00 0.00 0.00 48 1012.1
20260507145122 52 248 2.0 11.0 0.00 0.00 0.00 49 1012.1
20260507145016 52 205 3.0 11.0 0.00 0.00 0.00 49 1011.8
20260507144910 52 208 4.0 11.0 0.00 0.00 0.00 48 1012.4
20260507144804 52 215 3.0 11.0 0.00 0.00 0.00 50 1012.1
20260507144656 52 239 3.0 11.0 0.00 0.00 0.00 50 1012.1
20260507144630 52 111 6.0 11.0 0.00 0.00 0.00 49 1011.8
20260507144551 51 258 2.0 10.0 0.00 0.00 0.00 50 1011.8
20260507144446 51 220 1.0 14.0 0.00 0.00 0.00 50 1012.1
20260507144340 51 200 5.0 14.0 0.00 0.00 0.00 49 1012.1
20260507144235 51 257 5.0 14.0 0.00 0.00 0.00 50 1012.4
20260507144129 51 213 4.0 14.0 0.00 0.00 0.00 52 1012.4
20260507144023 51 247 5.0 14.0 0.00 0.00 0.00 50 1012.4
20260507143918 51 137 2.0 14.0 0.00 0.00 0.00 51 1012.4
20260507143812 51 278 2.0 14.0 0.00 0.00 0.00 49 1012.4
20260507143707 52 245 4.0 14.0 0.00 0.00 0.00 49 1012.1
20260507143618 52 253 6.0 14.0 0.00 0.00 0.00 48 1012.1
20260507143600 53 278 9.0 14.0 0.00 0.00 0.00 47 1012.1
20260507143456 53 221 4.0 9.0 0.00 0.00 0.00 48 1012.1
20260507143349 52 254 2.0 9.0 0.00 0.00 0.00 48 1012.1
20260507143244 52 211 0.0 9.0 0.00 0.00 0.00 50 1012.1
20260507143138 52 17 2.0 9.0 0.00 0.00 0.00 49 1012.1
20260507143112 52 114 1.0 9.0 0.00 0.00 0.00 49 1012.1
20260507143032 52 218 1.0 9.0 0.00 0.00 0.00 49 1012.1
20260507142927 52 245 2.0 9.0 0.00 0.00 0.00 51 1012.1
20260507142821 52 254 0.0 9.0 0.00 0.00 0.00 48 1012.4
20260507142715 52 128 2.0 9.0 0.00 0.00 0.00 48 1012.4
20260507142610 52 238 6.0 13.0 0.00 0.00 0.00 48 1012.1
20260507142504 51 300 2.0 13.0 0.00 0.00 0.00 49 1012.4
20260507142358 52 238 4.0 13.0 0.00 0.00 0.00 48 1012.1
20260507142252 52 255 1.0 13.0 0.00 0.00 0.00 48 1012.1
20260507142147 51 308 0.0 13.0 0.00 0.00 0.00 50 1012.1
20260507142058 51 202 2.0 13.0 0.00 0.00 0.00 52 1012.1
20260507142041 51 332 2.0 13.0 0.00 0.00 0.00 50 1012.4
20260507141935 51 267 5.0 13.0 0.00 0.00 0.00 49 1012.1
20260507141829 51 236 0.0 13.0 0.00 0.00 0.00 49 1012.1
20260507141724 52 229 6.0 13.0 0.00 0.00 0.00 50 1012.4
20260507141618 52 209 4.0 9.0 0.00 0.00 0.00 50 1012.1
20260507141552 52 87 5.0 9.0 0.00 0.00 0.00 50 1012.1
20260507141513 52 239 5.0 9.0 0.00 0.00 0.00 50 1012.4
20260507141407 51 83 0.0 8.0 0.00 0.00 0.00 51 1012.4
20260507141301 51 195 4.0 8.0 0.00 0.00 0.00 49 1012.1
20260507141157 52 245 3.0 8.0 0.00 0.00 0.00 49 1012.4
20260507141051 52 258 3.0 8.0 0.00 0.00 0.00 51 1012.4
20260507140946 53 195 4.0 8.0 0.00 0.00 0.00 49 1012.4
20260507140840 53 243 3.0 8.0 0.00 0.00 0.00 48 1012.4
20260507140735 53 207 2.0 7.0 0.00 0.00 0.00 50 1012.4
20260507140628 52 59 1.0 7.0 0.00 0.00 0.00 51 1012.4
20260507140540 52 328 1.0 9.0 0.00 0.00 0.00 51 1012.4
20260507140523 52 175 0.0 9.0 0.00 0.00 0.00 49 1012.4
20260507140417 52 251 0.0 9.0 0.00 0.00 0.00 49 1012.4
20260507140313 52 247 1.0 10.0 0.00 0.00 0.00 50 1012.4
20260507140205 52 126 0.0 10.0 0.00 0.00 0.00 50 1012.4
20260507140113 51 223 4.0 10.0 0.00 0.00 0.00 49 1012.4
20260507140033 51 165 5.0 10.0 0.00 0.00 0.00 50 1012.4
20260507135954 51 300 0.0 10.0 0.00 0.00 0.00 52 1012.4
20260507135848 50 188 2.0 10.0 0.00 0.00 0.00 52 1012.4
20260507135743 50 114 0.0 10.0 0.00 0.00 0.00 52 1012.4
20260507135637 50 203 4.0 10.0 0.00 0.00 0.00 50 1012.4
20260507135530 50 201 4.0 10.0 0.00 0.00 0.00 51 1012.4
20260507135425 51 195 4.0 10.0 0.00 0.00 0.00 50 1012.4
20260507135319 51 220 6.0 8.0 0.00 0.00 0.00 49 1012.4
20260507135214 51 245 4.0 8.0 0.00 0.00 0.00 49 1012.4
20260507135107 52 186 4.0 8.0 0.00 0.00 0.00 50 1012.8
20260507135018 52 313 4.0 8.0 0.00 0.00 0.00 49 1012.4
20260507135001 52 313 4.0 8.0 0.00 0.00 0.00 49 1012.4
20260507134917 50 183 1.0 6.0 0.00 0.00 0.00 52 1012.4
20260507134912 51 316 0.0 1.0 0.00 0.00 0.00 56 1012.4
20260507134908 48 135 1.0 3.0 0.00 0.00 0.00 61 1012.4
20260507134904 47 264 2.0 3.0 0.00 0.00 0.00 60 1012.4
20260507134900 47 269 1.0 1.0 0.00 0.00 0.00 66 1012.8
20260507134856 51 268 2.0 7.0 0.00 0.00 0.00 51 1012.4
20260507134847 51 249 4.0 4.0 0.00 0.00 0.00 53 1012.4
20260507134842 51 210 0.0 7.0 0.00 0.00 0.00 50 1012.4
20260507134838 51 174 1.0 7.0 0.00 0.00 0.00 51 1012.4
20260507134830 51 227 0.0 7.0 0.00 0.00 0.00 50 1012.4
20260507134822 51 212 2.0 7.0 0.00 0.00 0.00 51 1012.4
20260507134557 51 218 3.0 7.0 0.00 0.00 0.00 50 1012.4
20260507134335 50 231 3.0 7.0 0.00 0.00 0.00 51 1012.4
20260507134331 51 269 2.0 7.0 0.00 0.00 0.00 54 1012.4
20260507134322 50 234 2.0 7.0 0.00 0.00 0.00 52 1012.4
20260507134313 50 255 1.0 7.0 0.00 0.00 0.00 52 1012.8
20260507134303 50 231 3.0 7.0 0.00 0.00 0.00 51 1012.4
20260507134044 51 282 6.0 7.0 0.00 0.00 0.00 50 1012.4
20260507133823 49 316 3.0 6.0 0.00 0.00 0.00 52 1012.4
20260507133819 51 144 1.0 4.0 0.00 0.00 0.00 51 1012.4
20260507133810 51 291 1.0 4.0 0.00 0.00 0.00 51 1012.4
20260507133802 51 295 1.0 4.0 0.00 0.00 0.00 50 1012.4
20260507133540 51 138 2.0 4.0 0.00 0.00 0.00 52 1012.4
20260507133532 51 210 1.0 4.0 0.00 0.00 0.00 50 1012.8
20260507133311 49 181 1.0 4.0 0.00 0.00 0.00 52 1012.1
20260507133307 51 106 0.0 6.0 0.00 0.00 0.00 53 1012.8
20260507133258 51 260 2.0 6.0 0.00 0.00 0.00 52 1012.4
20260507133250 51 215 1.0 6.0 0.00 0.00 0.00 52 1012.4
20260507133024 50 178 1.0 6.0 0.00 0.00 0.00 52 1012.4
20260507132804 50 195 2.0 6.0 0.00 0.00 0.00 54 1012.4
20260507132754 50 248 2.0 4.0 0.00 0.00 0.00 54 1012.4
20260507132751 49 274 2.0 6.0 0.00 0.00 0.00 53 1012.4
20260507132742 49 339 0.0 6.0 0.00 0.00 0.00 53 1012.4
20260507132731 49 316 3.0 6.0 0.00 0.00 0.00 52 1012.4
20260507132508 50 328 3.0 6.0 0.00 0.00 0.00 52 1012.4
20260507132244 49 295 0.0 2.0 0.00 0.00 0.00 57 1012.8
20260507132241 50 24 1.0 4.0 0.00 0.00 0.00 52 1012.4
20260507132232 50 337 2.0 4.0 0.00 0.00 0.00 52 1012.4
20260507132223 51 302 2.0 4.0 0.00 0.00 0.00 51 1012.4
20260507131957 51 336 4.0 4.0 0.00 0.00 0.00 51 1012.4
20260507131953 51 329 3.0 3.0 0.00 0.00 0.00 52 1012.4
20260507131945 50 180 0.0 3.0 0.00 0.00 0.00 52 1012.4
20260507131725 50 264 1.0 3.0 0.00 0.00 0.00 52 1012.4
20260507131716 49 159 0.0 3.0 0.00 0.00 0.00 52 1012.1
20260507131708 49 168 1.0 4.0 0.00 0.00 0.00 51 1012.4
20260507131446 49 221 2.0 4.0 0.00 0.00 0.00 54 1012.1
20260507131437 49 290 1.0 4.0 0.00 0.00 0.00 53 1012.4
20260507131218 49 243 1.0 4.0 0.00 0.00 0.00 53 1012.4
20260507131209 49 279 1.0 4.0 0.00 0.00 0.00 53 1012.4
20260507130942 49 249 1.0 4.0 0.00 0.00 0.00 54 1012.4
20260507130934 49 275 0.0 4.0 0.00 0.00 0.00 53 1012.4
20260507130925 49 269 0.0 4.0 0.00 0.00 0.00 52 1012.4
20260507130702 49 226 3.0 4.0 0.00 0.00 0.00 54 1012.4
20260507130653 50 296 2.0 4.0 0.00 0.00 0.00 53 1012.4
20260507130429 50 249 2.0 4.0 0.00 0.00 0.00 56 1012.4
20260507130421 50 216 1.0 4.0 0.00 0.00 0.00 52 1012.4
20260507130148 51 179 2.0 3.0 0.00 0.00 0.00 54 1012.4
20260507130140 51 286 2.0 3.0 0.00 0.00 0.00 56 1012.4
20260507130131 51 210 1.0 2.0 0.00 0.00 0.00 55 1012.4
20260507125909 50 327 0.0 1.0 0.00 0.00 0.00 56 1012.4
20260507125900 50 328 0.0 1.0 0.00 0.00 0.00 57 1012.4
20260507125642 49 326 0.0 1.0 0.00 0.00 0.00 58 1012.4
20260507125633 49 298 0.0 1.0 0.00 0.00 0.00 58 1012.8
20260507125623 49 295 0.0 2.0 0.00 0.00 0.00 57 1012.8
20260507125402 49 272 0.0 3.0 0.00 0.00 0.00 56 1012.4
20260507125353 49 155 0.0 3.0 0.00 0.00 0.00 58 1012.4
20260507125131 48 152 0.0 3.0 0.00 0.00 0.00 61 1012.4
20260507125123 48 134 0.0 3.0 0.00 0.00 0.00 61 1012.4
20260507124858 48 135 1.0 3.0 0.00 0.00 0.00 61 1012.4
20260507124850 47 177 0.0 3.0 0.00 0.00 0.00 61 1012.8
20260507124841 47 181 0.0 3.0 0.00 0.00 0.00 61 1012.8
20260507124618 47 245 2.0 3.0 0.00 0.00 0.00 61 1012.8
20260507124609 47 264 1.0 3.0 0.00 0.00 0.00 60 1012.4
20260507124347 47 262 3.0 3.0 0.00 0.00 0.00 61 1012.4
20260507124339 47 258 1.0 1.0 0.00 0.00 0.00 61 1012.8
20260507124120 47 319 1.0 1.0 0.00 0.00 0.00 63 1012.4
20260507124111 47 334 0.0 1.0 0.00 0.00 0.00 63 1012.8
20260507124101 47 269 1.0 1.0 0.00 0.00 0.00 66 1012.8
20260507123744 47 195 0.0 1.0 0.00 0.00 0.00 66 1012.4
20260507123638 46 172 0.0 1.0 0.00 0.00 0.00 66 1012.8
20260507123534 46 194 0.0 1.0 0.00 0.00 0.00 66 1012.8
20260507123428 46 247 0.0 1.0 0.00 0.00 0.00 65 1012.8
20260507123340 46 249 0.0 1.0 0.00 0.00 0.00 66 1012.8
20260507123322 46 277 1.0 1.0 0.00 0.00 0.00 66 1012.8
20260507123216 46 221 0.0 1.0 0.00 0.00 0.00 69 1012.8
20260507123111 46 220 0.0 1.0 0.00 0.00 0.00 68 1012.8
20260507123006 46 241 0.0 1.0 0.00 0.00 0.00 69 1012.8
20260507122859 45 220 0.0 1.0 0.00 0.00 0.00 69 1012.8
20260507122834 45 223 1.0 1.0 0.00 0.00 0.00 69 1012.8
20260507122754 45 221 1.0 1.0 0.00 0.00 0.00 68 1012.8
20260507122648 45 231 0.0 1.0 0.00 0.00 0.00 70 1012.8
20260507122542 45 232 1.0 1.0 0.00 0.00 0.00 71 1012.8
20260507122436 45 169 0.0 1.0 0.00 0.00 0.00 72 1012.8
20260507122330 45 169 0.0 1.0 0.00 0.00 0.00 72 1012.4
20260507122226 44 169 0.0 1.0 0.00 0.00 0.00 73 1013.1
20260507122120 44 168 0.0 1.0 0.00 0.00 0.00 72 1012.8
20260507122014 44 169 0.0 1.0 0.00 0.00 0.00 72 1012.8
20260507121907 44 303 0.0 1.0 0.00 0.00 0.00 72 1012.8
20260507121819 44 316 0.0 1.0 0.00 0.00 0.00 72 1012.4
20260507121802 44 327 0.0 1.0 0.00 0.00 0.00 73 1012.4
20260507121656 44 338 0.0 1.0 0.00 0.00 0.00 74 1012.8
20260507121550 44 358 0.0 0.0 0.00 0.00 0.00 74 1012.8
20260507121445 44 344 0.0 0.0 0.00 0.00 0.00 76 1012.8
20260507121340 44 344 0.0 0.0 0.00 0.00 0.00 76 1012.8
20260507121313 44 344 0.0 0.0 0.00 0.00 0.00 76 1012.8
20260507121234 44 353 0.0 0.0 0.00 0.00 0.00 76 1012.8
20260507121128 44 349 0.0 0.0 0.00 0.00 0.00 76 1012.8
20260507121023 43 349 0.0 0.0 0.00 0.00 0.00 76 1012.8
20260507120917 43 350 0.0 0.0 0.00 0.00 0.00 77 1012.8
20260507120811 43 339 0.0 0.0 0.00 0.00 0.00 77 1012.8
20260507120705 43 339 0.0 0.0 0.00 0.00 0.00 77 1012.8
20260507120600 43 338 0.0 0.0 0.00 0.00 0.00 78 1012.8
20260507120454 42 338 0.0 0.0 0.00 0.00 0.00 79 1012.8
20260507120348 42 338 0.0 0.0 0.00 0.00 0.00 80 1012.8
20260507120301 42 338 0.0 0.0 0.00 0.00 0.00 81 1012.4
20260507120243 41 338 0.0 0.0 0.00 0.00 0.00 81 1012.8
20260507120137 41 338 0.0 0.0 0.00 0.00 0.00 83 1012.8
20260507120030 41 338 0.0 0.0 0.00 0.00 0.00 83 1012.8
20260507115926 41 338 0.0 0.0 0.00 0.00 0.00 83 1012.4
20260507115820 40 338 0.0 0.0 0.00 0.00 0.00 83 1012.4
20260507115753 40 338 0.0 0.0 0.00 0.00 0.00 83 1012.4
20260507115714 40 338 0.0 0.0 0.00 0.00 0.00 84 1012.8
20260507115609 40 338 0.0 0.0 0.00 0.00 0.00 85 1012.8
20260507115504 39 338 0.0 0.0 0.00 0.00 0.00 85 1012.8
20260507115357 39 338 0.0 0.0 0.00 0.00 0.00 85 1012.8
20260507115252 39 338 0.0 0.0 0.00 0.00 0.00 85 1012.8
20260507115147 39 338 0.0 0.0 0.00 0.00 0.00 86 1012.8
20260507115040 39 338 0.0 0.0 0.00 0.00 0.00 86 1012.8
20260507114934 38 338 0.0 0.0 0.00 0.00 0.00 87 1012.8
20260507114828 38 338 0.0 0.0 0.00 0.00 0.00 88 1012.8
20260507114740 38 339 0.0 0.0 0.00 0.00 0.00 88 1012.8
20260507114722 38 339 0.0 0.0 0.00 0.00 0.00 88 1012.8
20260507114617 37 339 0.0 0.0 0.00 0.00 0.00 89 1012.8
20260507114511 37 340 0.0 0.0 0.00 0.00 0.00 89 1012.8
20260507114405 37 340 0.0 0.0 0.00 0.00 0.00 90 1012.8
20260507114233 37 339 0.0 0.0 0.00 0.00 0.00 90 1012.8
20260507114154 37 340 0.0 0.0 0.00 0.00 0.00 90 1012.8
20260507114049 37 340 0.0 0.0 0.00 0.00 0.00 90 1012.8
20260507113943 36 340 0.0 0.0 0.00 0.00 0.00 91 1012.4
20260507113838 36 340 0.0 0.0 0.00 0.00 0.00 91 1012.4
20260507113731 36 340 0.0 0.0 0.00 0.00 0.00 91 1012.8
20260507113626 36 340 0.0 0.0 0.00 0.00 0.00 91 1012.4
20260507113520 36 340 0.0 0.0 0.00 0.00 0.00 91 1012.4
20260507113415 36 340 0.0 0.0 0.00 0.00 0.00 91 1012.4
20260507113309 36 340 0.0 0.0 0.00 0.00 0.00 91 1012.4
20260507113221 35 340 0.0 0.0 0.00 0.00 0.00 91 1012.8
20260507113204 35 340 0.0 0.0 0.00 0.00 0.00 91 1012.8
20260507113057 35 340 0.0 0.0 0.00 0.00 0.00 91 1012.8
20260507112952 35 340 0.0 0.0 0.00 0.00 0.00 91 1012.4
20260507112846 35 340 0.0 0.0 0.00 0.00 0.00 91 1012.4
20260507112741 35 340 0.0 0.0 0.00 0.00 0.00 91 1012.8
20260507112715 35 340 0.0 0.0 0.00 0.00 0.00 92 1012.8
20260507112634 35 340 0.0 0.0 0.00 0.00 0.00 92 1012.4
20260507112528 35 340 0.0 0.0 0.00 0.00 0.00 92 1012.4
20260507112423 35 340 0.0 0.0 0.00 0.00 0.00 92 1012.8
20260507112318 35 340 0.0 0.0 0.00 0.00 0.00 92 1012.4
20260507112212 35 340 0.0 0.0 0.00 0.00 0.00 92 1012.4
20260507112106 35 340 0.0 0.0 0.00 0.00 0.00 92 1012.8
20260507112000 35 340 0.0 0.0 0.00 0.00 0.00 92 1012.4
20260507111854 35 340 0.0 0.0 0.00 0.00 0.00 93 1012.4
20260507111749 34 340 0.0 0.0 0.00 0.00 0.00 93 1012.4
20260507111701 34 340 0.0 0.0 0.00 0.00 0.00 92 1012.4
20260507111643 34 340 0.0 0.0 0.00 0.00 0.00 92 1012.4
20260507111538 34 339 0.0 0.0 0.00 0.00 0.00 92 1012.4
20260507111432 34 339 0.0 0.0 0.00 0.00 0.00 92 1012.4
20260507111326 34 339 0.0 0.0 0.00 0.00 0.00 92 1012.4
20260507111234 34 339 0.0 0.0 0.00 0.00 0.00 92 1012.4
20260507111155 33 339 0.0 0.0 0.00 0.00 0.00 92 1012.4
20260507111115 33 339 0.0 0.0 0.00 0.00 0.00 92 1012.4
20260507111008 33 339 0.0 0.0 0.00 0.00 0.00 92 1012.4
20260507110902 33 340 0.0 0.0 0.00 0.00 0.00 92 1012.4
20260507110757 33 340 0.0 0.0 0.00 0.00 0.00 92 1012.4
20260507110652 33 340 0.0 0.0 0.00 0.00 0.00 92 1012.4
20260507110544 33 340 0.0 0.0 0.00 0.00 0.00 92 1012.4
20260507110438 33 340 0.0 0.0 0.00 0.00 0.00 92 1012.1
20260507110333 33 340 0.0 0.0 0.00 0.00 0.00 92 1012.1
20260507110228 33 340 0.0 0.0 0.00 0.00 0.00 92 1012.4
20260507110139 33 340 0.0 0.0 0.00 0.00 0.00 92 1012.4
20260507110121 33 340 0.0 0.0 0.00 0.00 0.00 92 1012.4
20260507110016 33 340 0.0 0.0 0.00 0.00 0.00 92 1012.4
20260507105910 33 340 0.0 0.0 0.00 0.00 0.00 92 1012.4
20260507105804 33 340 0.0 0.0 0.00 0.00 0.00 92 1012.4
20260507105658 34 339 0.0 0.0 0.00 0.00 0.00 92 1012.4
20260507105631 34 340 0.0 0.0 0.00 0.00 0.00 92 1012.4
20260507105552 34 339 0.0 0.0 0.00 0.00 0.00 92 1012.4
20260507105446 34 339 0.0 0.0 0.00 0.00 0.00 92 1012.4
20260507105341 33 339 0.0 0.0 0.00 0.00 0.00 92 1012.4
20260507105235 33 339 0.0 0.0 0.00 0.00 0.00 92 1012.4
20260507105136 33 339 0.0 0.0 0.00 0.00 0.00 92 1012.4
20260507105129 33 339 0.0 0.0 0.00 0.00 0.00 92 1012.4
20260507105025 33 339 0.0 0.0 0.00 0.00 0.00 92 1012.4
20260507104918 34 339 0.0 0.0 0.00 0.00 0.00 92 1012.4
20260507104812 34 339 0.0 0.0 0.00 0.00 0.00 92 1012.4
20260507104708 34 339 0.0 0.0 0.00 0.00 0.00 92 1012.4
20260507104630 34 339 0.0 0.0 0.00 0.00 0.00 92 1012.4
20260507104602 34 339 0.0 0.0 0.00 0.00 0.00 92 1012.4
20260507104456 34 339 0.0 0.0 0.00 0.00 0.00 92 1012.1
20260507104349 34 339 0.0 0.0 0.00 0.00 0.00 92 1012.1
20260507104245 34 339 0.0 0.0 0.00 0.00 0.00 92 1012.4
20260507104124 34 339 0.0 0.0 0.00 0.00 0.00 92 1012.1
20260507104033 34 339 0.0 0.0 0.00 0.00 0.00 91 1012.1
20260507103927 34 340 0.0 0.0 0.00 0.00 0.00 91 1012.1
20260507103822 34 340 0.0 0.0 0.00 0.00 0.00 91 1012.1
20260507103716 34 339 0.0 0.0 0.00 0.00 0.00 91 1012.4
20260507103611 34 339 0.0 0.0 0.00 0.00 0.00 91 1012.4
20260507103505 34 339 0.0 0.0 0.00 0.00 0.00 91 1012.1
20260507103359 34 339 0.0 1.0 0.00 0.00 0.00 91 1012.1
20260507103254 34 339 0.0 1.0 0.00 0.00 0.00 91 1012.1
20260507103149 34 339 0.0 1.0 0.00 0.00 0.00 91 1012.1
20260507103112 34 339 0.0 1.0 0.00 0.00 0.00 91 1012.4
20260507103043 34 339 0.0 1.0 0.00 0.00 0.00 91 1012.1
20260507102938 34 339 0.0 1.0 0.00 0.00 0.00 91 1012.1
20260507102832 34 340 0.0 1.0 0.00 0.00 0.00 91 1012.1
20260507102726 34 339 0.0 1.0 0.00 0.00 0.00 91 1012.1
20260507102618 34 339 0.0 1.0 0.00 0.00 0.00 91 1012.4
20260507102602 34 339 0.0 1.0 0.00 0.00 0.00 91 1012.4
20260507102512 34 340 0.0 1.0 0.00 0.00 0.00 91 1012.1
20260507102407 34 340 0.0 1.0 0.00 0.00 0.00 91 1012.1
20260507102301 34 340 0.0 1.0 0.00 0.00 0.00 91 1012.1
20260507102156 34 340 0.0 1.0 0.00 0.00 0.00 91 1012.1
20260507102049 34 340 0.0 1.0 0.00 0.00 0.00 91 1012.1
20260507101944 34 340 0.0 1.0 0.00 0.00 0.00 91 1012.4
20260507101838 34 340 0.0 1.0 0.00 0.00 0.00 91 1012.4
20260507101732 35 339 0.0 1.0 0.00 0.00 0.00 91 1012.4
20260507101626 34 340 0.0 1.0 0.00 0.00 0.00 91 1012.1
20260507101548 34 340 0.0 1.0 0.00 0.00 0.00 91 1012.1
20260507101519 34 339 0.0 1.0 0.00 0.00 0.00 91 1012.1
20260507101413 34 340 0.0 1.0 0.00 0.00 0.00 91 1012.4
20260507101308 34 339 0.0 1.0 0.00 0.00 0.00 90 1012.4
20260507101202 35 339 0.0 0.0 0.00 0.00 0.00 90 1012.1
20260507101041 34 339 0.0 0.0 0.00 0.00 0.00 90 1012.4
20260507100951 34 339 0.0 0.0 0.00 0.00 0.00 90 1012.4
20260507100845 34 340 0.0 0.0 0.00 0.00 0.00 90 1012.1
20260507100753 34 340 0.0 0.0 0.00 0.00 0.00 90 1012.1
20260507100634 35 339 0.0 0.0 0.00 0.00 0.00 90 1012.1
20260507100529 35 339 0.0 0.0 0.00 0.00 0.00 90 1012.1
20260507100423 35 340 0.0 0.0 0.00 0.00 0.00 90 1012.1
20260507100317 35 340 0.0 0.0 0.00 0.00 0.00 90 1012.1
20260507100212 35 339 0.0 0.0 0.00 0.00 0.00 90 1011.8
20260507100119 35 339 0.0 0.0 0.00 0.00 0.00 90 1012.1
20260507100028 35 339 0.0 0.0 0.00 0.00 0.00 90 1012.4
20260507100000 35 339 0.0 0.0 0.00 0.00 0.00 90 1012.4
20260507095854 35 340 0.0 0.0 0.00 0.00 0.00 90 1012.4
20260507095750 35 340 0.0 0.0 0.00 0.00 0.00 90 1012.4
20260507095644 35 340 0.0 0.0 0.00 0.00 0.00 90 1012.1
20260507095522 35 340 0.0 0.0 0.00 0.00 0.00 90 1012.1
20260507095431 35 340 0.0 0.0 0.00 0.00 0.00 90 1012.1
20260507095326 35 340 0.0 0.0 0.00 0.00 0.00 90 1012.4
20260507095220 35 340 0.0 0.0 0.00 0.00 0.00 90 1012.1
20260507095114 35 340 0.0 0.0 0.00 0.00 0.00 90 1012.1
20260507095015 35 340 0.0 0.0 0.00 0.00 0.00 89 1012.1
20260507095008 35 340 0.0 0.0 0.00 0.00 0.00 89 1012.1
20260507094902 35 340 0.0 0.0 0.00 0.00 0.00 89 1012.4
20260507094756 35 340 0.0 0.0 0.00 0.00 0.00 89 1012.1
20260507094651 35 340 0.0 0.0 0.00 0.00 0.00 89 1012.4
20260507094546 35 340 0.0 0.0 0.00 0.00 0.00 89 1012.1
20260507094508 35 340 0.0 0.0 0.00 0.00 0.00 89 1012.1
20260507094439 35 340 0.0 0.0 0.00 0.00 0.00 89 1012.1
20260507094335 35 340 0.0 0.0 0.00 0.00 0.00 89 1012.1
20260507094228 36 340 0.0 0.0 0.00 0.00 0.00 89 1012.1
20260507094120 36 340 0.0 0.0 0.00 0.00 0.00 89 1012.1
20260507094015 36 340 0.0 0.0 0.00 0.00 0.00 89 1012.1
20260507093959 36 340 0.0 0.0 0.00 0.00 0.00 89 1012.1
20260507093909 36 340 0.0 0.0 0.00 0.00 0.00 89 1012.4
20260507093803 36 340 0.0 0.0 0.00 0.00 0.00 88 1012.4
20260507093658 36 340 0.0 0.0 0.00 0.00 0.00 88 1012.4
20260507093553 36 340 0.0 0.0 0.00 0.00 0.00 88 1012.4
20260507093446 36 340 0.0 0.0 0.00 0.00 0.00 88 1012.1
20260507093340 36 340 0.0 0.0 0.00 0.00 0.00 88 1012.4
20260507093234 36 340 0.0 0.0 0.00 0.00 0.00 88 1012.4
20260507093131 36 340 0.0 0.0 0.00 0.00 0.00 88 1012.4
20260507093023 36 340 0.0 0.0 0.00 0.00 0.00 88 1012.1
20260507092946 36 340 0.0 0.0 0.00 0.00 0.00 87 1012.1
20260507092918 36 340 0.0 0.0 0.00 0.00 0.00 87 1012.4
20260507092812 36 340 0.0 0.0 0.00 0.00 0.00 87 1012.1
20260507092706 36 340 0.0 0.0 0.00 0.00 0.00 87 1012.4
20260507092600 36 340 0.0 0.0 0.00 0.00 0.00 87 1012.1
20260507092440 36 340 0.0 0.0 0.00 0.00 0.00 87 1012.4
20260507092349 36 340 0.0 0.0 0.00 0.00 0.00 87 1012.4
20260507092243 36 340 0.0 0.0 0.00 0.00 0.00 86 1012.1
20260507092151 36 338 0.0 0.0 0.00 0.00 0.00 86 1012.4
20260507092033 36 338 0.0 0.0 0.00 0.00 0.00 86 1012.1
20260507091926 36 338 0.0 0.0 0.00 0.00 0.00 86 1012.1
20260507091821 36 338 0.0 0.0 0.00 0.00 0.00 86 1012.1
20260507091715 36 338 0.0 0.0 0.00 0.00 0.00 86 1012.4
20260507091610 36 338 0.0 0.0 0.00 0.00 0.00 86 1012.1
20260507091503 36 338 0.0 0.0 0.00 0.00 0.00 86 1012.4
20260507091426 36 338 0.0 0.0 0.00 0.00 0.00 86 1012.1
20260507091358 36 338 0.0 0.0 0.00 0.00 0.00 86 1012.1
20260507091252 36 338 0.0 0.0 0.00 0.00 0.00 86 1012.4
20260507091146 36 338 0.0 0.0 0.00 0.00 0.00 86 1012.4
20260507091041 36 338 0.0 0.0 0.00 0.00 0.00 86 1012.4
20260507090920 37 338 0.0 0.0 0.00 0.00 0.00 86 1012.4
20260507090830 37 338 0.0 0.0 0.00 0.00 0.00 86 1012.4
20260507090724 36 338 0.0 0.0 0.00 0.00 0.00 86 1012.4
20260507090618 36 338 0.0 0.0 0.00 0.00 0.00 86 1012.4
20260507090513 37 338 0.0 0.0 0.00 0.00 0.00 86 1012.1
20260507090421 37 338 0.0 0.0 0.00 0.00 0.00 87 1012.4
20260507090301 37 338 0.0 0.0 0.00 0.00 0.00 87 1012.4
20260507090157 36 338 0.0 0.0 0.00 0.00 0.00 87 1012.4
20260507085944 36 340 0.0 0.0 0.00 0.00 0.00 87 1012.4
20260507085907 36 340 0.0 0.0 0.00 0.00 0.00 87 1012.4
20260507085839 36 340 0.0 0.0 0.00 0.00 0.00 87 1012.4
20260507085733 36 340 0.0 0.0 0.00 0.00 0.00 87 1012.4
20260507085627 36 340 0.0 0.0 0.00 0.00 0.00 87 1012.4
20260507085523 36 340 0.0 0.0 0.00 0.00 0.00 87 1012.4
20260507085401 36 340 0.0 0.0 0.00 0.00 0.00 87 1012.4
20260507085311 36 340 0.0 0.0 0.00 0.00 0.00 87 1012.4
20260507085205 36 340 0.0 0.0 0.00 0.00 0.00 87 1012.4
20260507085100 36 340 0.0 0.0 0.00 0.00 0.00 87 1012.4
20260507084954 36 340 0.0 0.0 0.00 0.00 0.00 86 1012.4
20260507084849 36 340 0.0 0.0 0.00 0.00 0.00 86 1012.4
20260507084743 36 340 0.0 0.0 0.00 0.00 0.00 86 1012.4
20260507084637 36 340 0.0 0.0 0.00 0.00 0.00 86 1012.4
20260507084532 36 340 0.0 0.0 0.00 0.00 0.00 86 1012.4
20260507084426 36 340 0.0 0.0 0.00 0.00 0.00 86 1012.4
20260507084320 37 340 0.0 0.0 0.00 0.00 0.00 86 1012.4
20260507084214 37 340 0.0 0.0 0.00 0.00 0.00 86 1012.8
20260507084108 37 340 0.0 0.0 0.00 0.00 0.00 86 1012.4
20260507084003 37 340 0.0 0.0 0.00 0.00 0.00 86 1012.4
20260507083841 37 340 0.0 0.0 0.00 0.00 0.00 86 1012.4
20260507083751 37 340 0.0 0.0 0.00 0.00 0.00 85 1012.4
20260507083658 37 340 0.0 0.0 0.00 0.00 0.00 85 1012.4
20260507083539 37 340 0.0 0.0 0.00 0.00 0.00 85 1012.4
20260507083433 37 340 0.0 0.0 0.00 0.00 0.00 85 1012.4
20260507083327 37 340 0.0 0.0 0.00 0.00 0.00 85 1012.1
20260507083222 37 340 0.0 0.0 0.00 0.00 0.00 85 1012.4
20260507083114 37 340 0.0 0.0 0.00 0.00 0.00 85 1012.4
20260507083009 37 340 0.0 0.0 0.00 0.00 0.00 84 1012.8
20260507082904 37 340 0.0 0.0 0.00 0.00 0.00 84 1012.4
20260507082827 37 340 0.0 0.0 0.00 0.00 0.00 84 1012.4
20260507082757 37 340 0.0 0.0 0.00 0.00 0.00 84 1012.4
20260507082651 37 340 0.0 0.0 0.00 0.00 0.00 83 1012.4
20260507082547 37 340 0.0 0.0 0.00 0.00 0.00 83 1012.1
20260507082441 37 340 0.0 0.0 0.00 0.00 0.00 83 1012.4
20260507082320 37 340 0.0 0.0 0.00 0.00 0.00 83 1012.4
20260507082230 37 340 0.0 0.0 0.00 0.00 0.00 83 1012.4
20260507082123 37 340 0.0 0.0 0.00 0.00 0.00 82 1012.4
20260507082017 37 340 0.0 0.0 0.00 0.00 0.00 83 1012.1
20260507081913 37 340 0.0 0.0 0.00 0.00 0.00 83 1012.4
20260507081806 37 340 0.0 0.0 0.00 0.00 0.00 82 1012.4
20260507081700 37 340 0.0 0.0 0.00 0.00 0.00 81 1012.4
20260507081555 37 340 0.0 0.0 0.00 0.00 0.00 81 1012.4
20260507081449 37 340 0.0 0.0 0.00 0.00 0.00 81 1012.4
20260507081343 37 340 0.0 0.0 0.00 0.00 0.00 81 1012.4
20260507081307 37 340 0.0 0.0 0.00 0.00 0.00 81 1012.4
20260507081238 37 340 0.0 0.0 0.00 0.00 0.00 81 1012.4
20260507081131 37 340 0.0 0.0 0.00 0.00 0.00 81 1012.4
20260507081027 37 340 0.0 0.0 0.00 0.00 0.00 80 1012.1
20260507080922 38 340 0.0 0.0 0.00 0.00 0.00 80 1012.1
20260507080815 38 340 0.0 0.0 0.00 0.00 0.00 80 1012.4
20260507080759 38 340 0.0 0.0 0.00 0.00 0.00 80 1012.4
20260507080709 38 340 0.0 0.0 0.00 0.00 0.00 80 1012.1
20260507080617 38 340 0.0 0.0 0.00 0.00 0.00 80 1012.4
20260507080456 38 340 0.0 0.0 0.00 0.00 0.00 80 1012.1
20260507080350 38 340 0.0 0.0 0.00 0.00 0.00 80 1012.1
20260507080245 38 340 0.0 0.0 0.00 0.00 0.00 80 1012.4
20260507080139 38 340 0.0 0.0 0.00 0.00 0.00 80 1012.1
20260507080034 38 340 0.0 0.0 0.00 0.00 0.00 80 1012.1
20260507075929 38 340 0.0 0.0 0.00 0.00 0.00 79 1012.4
20260507075822 38 340 0.0 0.0 0.00 0.00 0.00 79 1012.1
20260507075745 38 340 0.0 0.0 0.00 0.00 0.00 79 1012.1
20260507075717 38 340 0.0 0.0 0.00 0.00 0.00 79 1012.4
20260507075609 38 340 0.0 0.0 0.00 0.00 0.00 78 1012.4
20260507075502 38 340 0.0 0.0 0.00 0.00 0.00 78 1012.1
20260507075357 38 340 0.0 0.0 0.00 0.00 0.00 78 1012.4
20260507075236 38 340 0.0 0.0 0.00 0.00 0.00 78 1012.4
20260507075146 38 340 0.0 0.0 0.00 0.00 0.00 78 1012.4
20260507075040 38 340 0.0 0.0 0.00 0.00 0.00 78 1012.4
20260507074934 38 340 0.0 0.0 0.00 0.00 0.00 77 1012.4
20260507074828 38 340 0.0 0.0 0.00 0.00 0.00 77 1012.8
20260507074723 38 340 0.0 0.0 0.00 0.00 0.00 77 1012.1
20260507074616 38 340 0.0 0.0 0.00 0.00 0.00 76 1012.4
20260507074512 38 340 0.0 0.0 0.00 0.00 0.00 76 1012.4
20260507074406 38 340 0.0 0.0 0.00 0.00 0.00 76 1012.4
20260507074259 39 340 0.0 0.0 0.00 0.00 0.00 76 1012.4
20260507074222 39 340 0.0 0.0 0.00 0.00 0.00 76 1012.1
20260507074154 39 340 0.0 0.0 0.00 0.00 0.00 76 1012.1
20260507074048 39 340 0.0 0.0 0.00 0.00 0.00 76 1012.4
20260507073942 39 340 0.0 0.0 0.00 0.00 0.00 76 1012.4
20260507073836 39 340 0.0 0.0 0.00 0.00 0.00 75 1012.4
20260507073716 39 340 0.0 0.0 0.00 0.00 0.00 75 1012.4
20260507073625 39 340 0.0 0.0 0.00 0.00 0.00 76 1012.4
20260507073520 39 340 0.0 0.0 0.00 0.00 0.00 76 1012.4
20260507073414 38 340 0.0 0.0 0.00 0.00 0.00 76 1012.4
20260507073309 38 340 0.0 0.0 0.00 0.00 0.00 76 1012.4
20260507073210 38 340 0.0 0.0 0.00 0.00 0.00 76 1012.4
20260507073203 38 340 0.0 0.0 0.00 0.00 0.00 77 1012.4
20260507073056 38 340 0.0 0.0 0.00 0.00 0.00 77 1012.1
20260507072952 38 340 0.0 0.0 0.00 0.00 0.00 77 1012.4
20260507072846 39 340 0.0 0.0 0.00 0.00 0.00 77 1012.4
20260507072743 39 340 0.0 0.0 0.00 0.00 0.00 77 1012.4
20260507072705 39 340 0.0 0.0 0.00 0.00 0.00 77 1012.4
20260507072636 39 340 0.0 0.0 0.00 0.00 0.00 76 1012.4
20260507072529 39 340 0.0 0.0 0.00 0.00 0.00 76 1012.4
20260507072424 39 340 0.0 0.0 0.00 0.00 0.00 76 1012.4
20260507072318 39 340 0.0 0.0 0.00 0.00 0.00 75 1012.4
20260507072213 39 340 0.0 0.0 0.00 0.00 0.00 75 1012.1
20260507072157 39 340 0.0 0.0 0.00 0.00 0.00 74 1012.1
20260507072107 39 340 0.0 0.0 0.00 0.00 0.00 74 1012.4
20260507072001 39 340 0.0 0.0 0.00 0.00 0.00 74 1012.4
20260507071857 39 340 0.0 0.0 0.00 0.00 0.00 75 1012.4
20260507071751 39 340 0.0 0.0 0.00 0.00 0.00 76 1012.4
20260507071646 40 340 0.0 0.0 0.00 0.00 0.00 77 1012.4
20260507071536 40 340 0.0 0.0 0.00 0.00 0.00 76 1012.4
20260507071433 40 340 0.0 0.0 0.00 0.00 0.00 74 1012.4
20260507071327 40 340 0.0 0.0 0.00 0.00 0.00 72 1012.8
20260507071219 40 340 0.0 0.0 0.00 0.00 0.00 72 1012.4
20260507071113 40 340 0.0 0.0 0.00 0.00 0.00 72 1012.4
20260507071007 41 340 0.0 0.0 0.00 0.00 0.00 71 1012.4
20260507070902 41 340 0.0 0.0 0.00 0.00 0.00 70 1012.4
20260507070807 42 340 0.0 0.0 0.00 0.00 0.00 69 1012.4
20260507070803 43 340 0.0 0.0 0.00 0.00 0.00 66 1012.4
20260507070759 41 340 0.0 0.0 0.00 0.00 0.00 70 1012.4
20260507070749 43 340 0.0 1.0 0.00 0.00 0.00 65 1012.4
20260507070745 41 340 0.0 0.0 0.00 0.00 0.00 69 1012.4
20260507070741 42 340 0.0 0.0 0.00 0.00 0.00 68 1012.4
20260507070730 40 340 0.0 0.0 0.00 0.00 0.00 70 1012.4
20260507070721 40 340 0.0 0.0 0.00 0.00 0.00 70 1012.4
20260507070501 41 340 0.0 0.0 0.00 0.00 0.00 71 1012.4
20260507070457 40 340 0.0 0.0 0.00 0.00 0.00 70 1012.4
20260507070448 41 340 0.0 0.0 0.00 0.00 0.00 71 1012.4
20260507070439 41 340 0.0 0.0 0.00 0.00 0.00 71 1012.4
20260507070218 41 340 0.0 0.0 0.00 0.00 0.00 72 1012.4
20260507070209 41 340 0.0 0.0 0.00 0.00 0.00 71 1012.4
20260507065945 41 340 0.0 0.0 0.00 0.00 0.00 70 1012.4
20260507065936 41 340 0.0 0.0 0.00 0.00 0.00 71 1012.4
20260507065927 41 340 0.0 0.0 0.00 0.00 0.00 69 1012.4
20260507065701 41 340 0.0 0.0 0.00 0.00 0.00 69 1012.4
20260507065652 41 340 0.0 0.0 0.00 0.00 0.00 70 1012.4
20260507065428 41 340 0.0 0.0 0.00 0.00 0.00 70 1012.4
20260507065419 41 340 0.0 0.0 0.00 0.00 0.00 70 1012.4
20260507065408 41 340 0.0 0.0 0.00 0.00 0.00 69 1012.1
20260507065144 41 340 0.0 0.0 0.00 0.00 0.00 69 1012.4
20260507064920 41 340 0.0 0.0 0.00 0.00 0.00 69 1012.4
20260507064912 42 340 0.0 0.0 0.00 0.00 0.00 68 1012.4
20260507064903 42 340 0.0 0.0 0.00 0.00 0.00 68 1012.4
20260507064641 42 340 0.0 0.0 0.00 0.00 0.00 68 1012.4
20260507064632 42 340 0.0 0.0 0.00 0.00 0.00 68 1012.4
20260507064412 43 340 0.0 0.0 0.00 0.00 0.00 66 1012.4
20260507064408 42 340 0.0 0.0 0.00 0.00 0.00 69 1012.4
20260507064359 42 340 0.0 0.0 0.00 0.00 0.00 69 1012.4
20260507064350 42 340 0.0 0.0 0.00 0.00 0.00 69 1012.4
20260507064129 42 340 0.0 0.0 0.00 0.00 0.00 69 1012.4
20260507064120 42 340 0.0 0.0 0.00 0.00 0.00 67 1012.4
20260507063856 42 340 0.0 0.0 0.00 0.00 0.00 67 1012.1
20260507063848 43 340 0.0 0.0 0.00 0.00 0.00 67 1012.4
20260507063836 43 340 0.0 0.0 0.00 0.00 0.00 66 1012.4
20260507063617 43 340 0.0 0.0 0.00 0.00 0.00 66 1012.4
20260507063607 43 340 0.0 0.0 0.00 0.00 0.00 66 1012.4
20260507063345 43 340 0.0 0.0 0.00 0.00 0.00 66 1012.4
20260507063336 43 340 0.0 0.0 0.00 0.00 0.00 66 1012.4
20260507063111 43 340 0.0 0.0 0.00 0.00 0.00 66 1012.4
20260507063049 43 340 0.0 0.0 0.00 0.00 0.00 65 1012.4
20260507063040 43 340 0.0 0.0 0.00 0.00 0.00 65 1012.4
20260507062817 43 340 0.0 0.0 0.00 0.00 0.00 65 1012.4
20260507062808 43 340 0.0 1.0 0.00 0.00 0.00 65 1012.4
20260507062512 43 340 0.0 1.0 0.00 0.00 0.00 65 1012.4
20260507062406 43 340 0.0 1.0 0.00 0.00 0.00 64 1012.4
20260507062301 43 340 0.0 1.0 0.00 0.00 0.00 64 1012.4
20260507062155 44 340 0.0 1.0 0.00 0.00 0.00 64 1012.4
20260507062049 44 340 0.0 2.0 0.00 0.00 0.00 64 1012.4
20260507061943 44 340 0.0 2.0 0.00 0.00 0.00 64 1012.4
20260507061837 44 340 0.0 2.0 0.00 0.00 0.00 63 1012.4
20260507061732 44 340 0.0 2.0 0.00 0.00 0.00 63 1012.4
20260507061627 44 340 0.0 2.0 0.00 0.00 0.00 63 1012.4
20260507061538 44 340 0.0 2.0 0.00 0.00 0.00 64 1012.4
20260507061533 44 338 0.0 2.0 0.00 0.00 0.00 63 1012.4
20260507061416 44 338 0.0 2.0 0.00 0.00 0.00 63 1012.4
20260507061309 44 338 0.0 2.0 0.00 0.00 0.00 63 1012.4
20260507061204 44 339 0.0 2.0 0.00 0.00 0.00 63 1012.4
20260507061059 44 339 1.0 2.0 0.00 0.00 0.00 63 1012.4
20260507061031 44 340 2.0 2.0 0.00 0.00 0.00 63 1012.8
20260507060953 44 340 0.0 1.0 0.00 0.00 0.00 63 1012.8
20260507060847 44 340 0.0 1.0 0.00 0.00 0.00 63 1012.4
20260507060742 44 340 0.0 1.0 0.00 0.00 0.00 63 1012.4
20260507060636 44 340 0.0 1.0 0.00 0.00 0.00 63 1012.4
20260507060530 44 340 1.0 1.0 0.00 0.00 0.00 63 1012.4
20260507060425 44 340 0.0 1.0 0.00 0.00 0.00 62 1012.4
20260507060319 44 340 0.0 1.0 0.00 0.00 0.00 62 1012.4
20260507060214 45 340 1.0 1.0 0.00 0.00 0.00 62 1012.4
20260507060113 45 339 0.0 1.0 0.00 0.00 0.00 61 1012.4
20260507060019 45 340 0.0 1.0 0.00 0.00 0.00 61 1012.4
20260507060002 45 340 0.0 1.0 0.00 0.00 0.00 61 1012.4
20260507055857 45 339 0.0 1.0 0.00 0.00 0.00 61 1012.4
20260507055751 45 340 0.0 1.0 0.00 0.00 0.00 61 1012.4
20260507055646 45 339 0.0 0.0 0.00 0.00 0.00 61 1012.4
20260507055512 45 340 0.0 1.0 0.00 0.00 0.00 61 1012.1
20260507055434 45 340 0.0 1.0 0.00 0.00 0.00 61 1012.4
20260507055329 45 340 0.0 1.0 0.00 0.00 0.00 61 1012.4
20260507055224 45 340 0.0 1.0 0.00 0.00 0.00 60 1012.4
20260507055116 45 340 0.0 1.0 0.00 0.00 0.00 61 1012.1
20260507055011 45 340 0.0 1.0 0.00 0.00 0.00 61 1012.1
20260507054905 45 339 0.0 2.0 0.00 0.00 0.00 61 1012.4
20260507054800 45 340 0.0 2.0 0.00 0.00 0.00 61 1012.4
20260507054654 45 340 0.0 2.0 0.00 0.00 0.00 61 1012.4
20260507054549 46 340 1.0 2.0 0.00 0.00 0.00 61 1012.4
20260507054443 46 340 0.0 4.0 0.00 0.00 0.00 61 1012.4
20260507054337 46 341 1.0 4.0 0.00 0.00 0.00 62 1012.4
20260507054231 46 344 0.0 4.0 0.00 0.00 0.00 60 1012.4
20260507054126 46 344 0.0 4.0 0.00 0.00 0.00 59 1012.4
20260507054020 46 347 0.0 4.0 0.00 0.00 0.00 58 1012.4
20260507053954 46 347 0.0 4.0 0.00 0.00 0.00 58 1012.4
20260507053915 46 0 1.0 4.0 0.00 0.00 0.00 58 1012.4
20260507053821 46 281 0.0 4.0 0.00 0.00 0.00 58 1012.4
20260507053704 46 281 0.0 4.0 0.00 0.00 0.00 58 1012.4
20260507053558 46 266 1.0 4.0 0.00 0.00 0.00 57 1012.4
20260507053451 46 151 0.0 2.0 0.00 0.00 0.00 58 1012.4
20260507053346 46 340 0.0 2.0 0.00 0.00 0.00 59 1012.8
20260507053240 46 344 0.0 2.0 0.00 0.00 0.00 57 1012.4
20260507053135 46 336 0.0 3.0 0.00 0.00 0.00 58 1012.4
20260507053030 46 290 1.0 3.0 0.00 0.00 0.00 58 1012.4
20260507052941 46 339 0.0 3.0 0.00 0.00 0.00 59 1012.4
20260507052924 46 340 0.0 3.0 0.00 0.00 0.00 59 1012.8
20260507052818 46 307 0.0 3.0 0.00 0.00 0.00 58 1012.4
20260507052712 46 298 0.0 3.0 0.00 0.00 0.00 58 1012.4
20260507052607 46 295 0.0 3.0 0.00 0.00 0.00 58 1012.4
20260507052501 46 303 0.0 3.0 0.00 0.00 0.00 57 1012.4
20260507052436 46 270 0.0 3.0 0.00 0.00 0.00 57 1012.4
20260507052408 46 280 0.0 3.0 0.00 0.00 0.00 60 1012.4
20260507052249 46 197 0.0 3.0 0.00 0.00 0.00 60 1012.8
20260507052143 46 236 2.0 3.0 0.00 0.00 0.00 58 1012.8
20260507052037 46 184 0.0 2.0 0.00 0.00 0.00 59 1012.8
20260507051935 46 234 0.0 2.0 0.00 0.00 0.00 60 1012.4
20260507051931 46 235 0.0 2.0 0.00 0.00 0.00 59 1012.4
20260507051826 46 280 0.0 2.0 0.00 0.00 0.00 61 1012.4
20260507051720 46 280 0.0 2.0 0.00 0.00 0.00 60 1012.4
20260507051611 46 280 0.0 2.0 0.00 0.00 0.00 59 1012.8
20260507051504 46 213 0.0 2.0 0.00 0.00 0.00 59 1012.4
20260507051428 46 206 0.0 2.0 0.00 0.00 0.00 60 1012.4
20260507051358 46 206 2.0 2.0 0.00 0.00 0.00 61 1012.4
20260507051253 46 247 0.0 2.0 0.00 0.00 0.00 61 1012.4
20260507051147 46 254 0.0 2.0 0.00 0.00 0.00 60 1012.4
20260507051041 46 247 0.0 2.0 0.00 0.00 0.00 59 1012.4
20260507050919 46 207 0.0 2.0 0.00 0.00 0.00 62 1012.8
20260507050829 46 207 0.0 2.0 0.00 0.00 0.00 61 1012.4
20260507050724 46 229 0.0 2.0 0.00 0.00 0.00 59 1012.4
20260507050619 46 247 0.0 2.0 0.00 0.00 0.00 61 1012.4
20260507050513 46 254 1.0 2.0 0.00 0.00 0.00 60 1012.8
20260507050413 46 184 0.0 0.0 0.00 0.00 0.00 61 1012.4
20260507050407 46 184 0.0 1.0 0.00 0.00 0.00 61 1012.4
20260507050302 46 184 0.0 1.0 0.00 0.00 0.00 62 1012.8
20260507050155 46 184 0.0 1.0 0.00 0.00 0.00 60 1012.4
20260507045943 46 184 0.0 1.0 0.00 0.00 0.00 60 1012.4
20260507045907 46 184 0.0 1.0 0.00 0.00 0.00 59 1012.4
20260507045838 46 184 0.0 1.0 0.00 0.00 0.00 60 1012.4
20260507045732 46 183 0.0 1.0 0.00 0.00 0.00 60 1012.4
20260507045627 46 221 0.0 1.0 0.00 0.00 0.00 61 1012.4
20260507045522 46 211 0.0 1.0 0.00 0.00 0.00 61 1012.4
20260507045416 46 198 0.0 1.0 0.00 0.00 0.00 62 1012.4
20260507045400 46 196 1.0 1.0 0.00 0.00 0.00 62 1012.4
20260507045310 46 263 0.0 1.0 0.00 0.00 0.00 62 1012.8
20260507045205 46 270 1.0 1.0 0.00 0.00 0.00 61 1012.4
20260507045056 46 202 0.0 0.0 0.00 0.00 0.00 63 1012.4
20260507044951 46 202 0.0 0.0 0.00 0.00 0.00 62 1012.4
20260507044844 46 202 0.0 0.0 0.00 0.00 0.00 62 1012.8
20260507044739 46 216 0.0 0.0 0.00 0.00 0.00 62 1012.4
20260507044634 46 214 0.0 0.0 0.00 0.00 0.00 62 1012.8
20260507044528 46 213 0.0 0.0 0.00 0.00 0.00 62 1012.4
20260507044423 46 213 0.0 0.0 0.00 0.00 0.00 61 1012.4
20260507044343 46 213 0.0 0.0 0.00 0.00 0.00 61 1012.4
20260507044316 46 212 0.0 0.0 0.00 0.00 0.00 60 1012.4
20260507044210 46 198 0.0 0.0 0.00 0.00 0.00 61 1012.4
20260507044105 46 197 0.0 0.0 0.00 0.00 0.00 63 1012.8
20260507043959 46 198 0.0 0.0 0.00 0.00 0.00 62 1012.8
20260507043853 46 197 0.0 0.0 0.00 0.00 0.00 62 1012.4
20260507043838 46 201 0.0 0.0 0.00 0.00 0.00 62 1012.4
20260507043748 46 210 0.0 0.0 0.00 0.00 0.00 62 1012.4
20260507043643 46 211 0.0 0.0 0.00 0.00 0.00 63 1012.8
20260507043537 46 211 0.0 0.0 0.00 0.00 0.00 63 1012.8
20260507043430 46 211 0.0 0.0 0.00 0.00 0.00 61 1012.8
20260507043324 46 187 0.0 0.0 0.00 0.00 0.00 62 1012.4
20260507043219 46 211 0.0 0.0 0.00 0.00 0.00 64 1012.8
20260507043113 46 210 0.0 0.0 0.00 0.00 0.00 61 1012.4
20260507043007 46 206 0.0 0.0 0.00 0.00 0.00 61 1012.8
20260507042902 47 207 0.0 0.0 0.00 0.00 0.00 61 1012.4
20260507042824 47 206 0.0 0.0 0.00 0.00 0.00 62 1012.4
20260507042757 47 206 0.0 0.0 0.00 0.00 0.00 62 1012.4
20260507042650 47 206 0.0 0.0 0.00 0.00 0.00 60 1012.8
20260507042545 47 206 0.0 0.0 0.00 0.00 0.00 61 1012.8
20260507042439 47 206 0.0 0.0 0.00 0.00 0.00 60 1012.4
20260507042335 47 201 0.0 0.0 0.00 0.00 0.00 60 1012.4
20260507042319 47 203 0.0 0.0 0.00 0.00 0.00 60 1012.4
20260507042228 47 204 0.0 0.0 0.00 0.00 0.00 61 1012.8
20260507042122 47 203 0.0 0.0 0.00 0.00 0.00 60 1012.8
20260507042017 47 203 0.0 0.0 0.00 0.00 0.00 60 1012.8
20260507041911 47 203 0.0 0.0 0.00 0.00 0.00 60 1012.8
20260507041811 47 206 0.0 0.0 0.00 0.00 0.00 60 1012.8
20260507041804 47 206 0.0 0.0 0.00 0.00 0.00 60 1012.8
20260507041659 47 207 0.0 1.0 0.00 0.00 0.00 59 1012.8
20260507041553 47 206 0.0 2.0 0.00 0.00 0.00 60 1012.8
20260507041448 47 206 0.0 2.0 0.00 0.00 0.00 63 1012.8
20260507041343 47 210 0.0 2.0 0.00 0.00 0.00 60 1012.4
20260507041305 47 203 0.0 2.0 0.00 0.00 0.00 60 1012.4
20260507041237 47 206 0.0 2.0 0.00 0.00 0.00 61 1012.8
20260507041131 47 208 0.0 3.0 0.00 0.00 0.00 62 1012.8
20260507041026 47 187 0.0 3.0 0.00 0.00 0.00 61 1012.8
20260507040921 47 187 0.0 3.0 0.00 0.00 0.00 63 1012.8
20260507040814 47 187 0.0 3.0 0.00 0.00 0.00 62 1012.4
20260507040759 47 187 0.0 3.0 0.00 0.00 0.00 61 1012.4
20260507040708 47 187 1.0 3.0 0.00 0.00 0.00 61 1012.8
20260507040603 47 197 1.0 3.0 0.00 0.00 0.00 59 1012.8
20260507040458 47 188 0.0 3.0 0.00 0.00 0.00 60 1012.4
20260507040352 47 198 0.0 3.0 0.00 0.00 0.00 60 1012.8
20260507040246 47 203 1.0 3.0 0.00 0.00 0.00 59 1012.8
20260507040137 47 202 0.0 0.0 0.00 0.00 0.00 61 1012.8
20260507040033 47 202 0.0 0.0 0.00 0.00 0.00 60 1012.8
20260507035926 47 202 0.0 0.0 0.00 0.00 0.00 59 1012.8
20260507035822 47 203 0.0 0.0 0.00 0.00 0.00 59 1012.8
20260507035744 47 202 0.0 0.0 0.00 0.00 0.00 59 1012.8
20260507035716 47 202 0.0 0.0 0.00 0.00 0.00 60 1012.8
20260507035610 47 202 0.0 0.0 0.00 0.00 0.00 59 1012.8
20260507035505 47 202 0.0 0.0 0.00 0.00 0.00 60 1012.4
20260507035359 47 202 0.0 0.0 0.00 0.00 0.00 59 1012.8
20260507035237 47 202 0.0 1.0 0.00 0.00 0.00 59 1012.8
20260507035147 47 212 0.0 1.0 0.00 0.00 0.00 60 1012.8
20260507035042 47 213 0.0 1.0 0.00 0.00 0.00 60 1012.8
20260507034936 47 211 0.0 1.0 0.00 0.00 0.00 60 1012.8
20260507034831 47 205 0.0 1.0 0.00 0.00 0.00 62 1012.8
20260507034725 47 206 0.0 1.0 0.00 0.00 0.00 61 1012.8
20260507034617 47 206 0.0 1.0 0.00 0.00 0.00 61 1012.8
20260507034512 47 206 0.0 1.0 0.00 0.00 0.00 59 1012.8
20260507034407 47 206 0.0 1.0 0.00 0.00 0.00 62 1012.8
20260507034300 47 211 1.0 1.0 0.00 0.00 0.00 61 1012.8
20260507034222 47 213 0.0 1.0 0.00 0.00 0.00 61 1013.1
20260507034154 47 213 0.0 1.0 0.00 0.00 0.00 60 1013.1
20260507034049 47 213 0.0 1.0 0.00 0.00 0.00 60 1012.8
20260507033943 47 213 0.0 1.0 0.00 0.00 0.00 61 1012.8
20260507033837 47 213 0.0 1.0 0.00 0.00 0.00 59 1012.8
20260507033716 47 213 0.0 1.0 0.00 0.00 0.00 60 1013.1
20260507033625 47 213 0.0 1.0 0.00 0.00 0.00 59 1012.8
20260507033519 47 216 0.0 1.0 0.00 0.00 0.00 59 1012.8
20260507033413 47 214 1.0 1.0 0.00 0.00 0.00 59 1013.1
20260507033309 47 208 0.0 1.0 0.00 0.00 0.00 60 1012.8
20260507033208 47 208 0.0 1.0 0.00 0.00 0.00 59 1012.8
20260507033203 47 213 0.0 1.0 0.00 0.00 0.00 59 1012.8
20260507033057 47 209 0.0 0.0 0.00 0.00 0.00 58 1012.8
20260507032952 47 206 0.0 0.0 0.00 0.00 0.00 62 1012.8
20260507032846 47 205 0.0 1.0 0.00 0.00 0.00 59 1012.8
20260507032740 47 208 0.0 1.0 0.00 0.00 0.00 62 1012.8
20260507032702 47 208 0.0 1.0 0.00 0.00 0.00 60 1012.8
20260507032635 47 211 0.0 1.0 0.00 0.00 0.00 60 1012.8
20260507032529 47 200 0.0 1.0 0.00 0.00 0.00 60 1012.8
20260507032423 47 200 0.0 1.0 0.00 0.00 0.00 60 1012.8
20260507032318 47 200 0.0 1.0 0.00 0.00 0.00 60 1013.1
20260507032211 47 200 0.0 1.0 0.00 0.00 0.00 60 1012.8
20260507032156 47 200 0.0 1.0 0.00 0.00 0.00 60 1012.8
20260507032106 47 200 0.0 1.0 0.00 0.00 0.00 60 1012.8
20260507032000 47 199 0.0 1.0 0.00 0.00 0.00 59 1013.1
20260507031855 47 200 1.0 1.0 0.00 0.00 0.00 60 1012.8
20260507031749 47 199 1.0 1.0 0.00 0.00 0.00 60 1013.1
20260507031649 47 199 0.0 0.0 0.00 0.00 0.00 60 1013.1
20260507031642 47 200 0.0 0.0 0.00 0.00 0.00 59 1012.8
20260507031537 47 209 0.0 0.0 0.00 0.00 0.00 59 1013.1
20260507031432 47 216 0.0 0.0 0.00 0.00 0.00 59 1012.8
20260507031326 47 206 0.0 0.0 0.00 0.00 0.00 62 1013.1
20260507031220 47 206 0.0 0.0 0.00 0.00 0.00 60 1013.1
20260507031142 47 206 0.0 0.0 0.00 0.00 0.00 59 1013.1
20260507031114 47 207 0.0 0.0 0.00 0.00 0.00 59 1013.1
20260507031009 47 207 0.0 0.0 0.00 0.00 0.00 61 1013.1
20260507030903 47 206 0.0 0.0 0.00 0.00 0.00 62 1012.8
20260507030758 47 211 0.0 1.0 0.00 0.00 0.00 61 1013.1
20260507030652 47 211 0.0 2.0 0.00 0.00 0.00 61 1012.8
20260507030636 47 212 0.0 2.0 0.00 0.00 0.00 61 1013.1
20260507030547 47 213 0.0 2.0 0.00 0.00 0.00 61 1013.1
20260507030440 47 211 0.0 2.0 0.00 0.00 0.00 61 1013.1
20260507030335 48 234 0.0 2.0 0.00 0.00 0.00 61 1013.1
20260507030229 48 207 0.0 2.0 0.00 0.00 0.00 61 1013.1
20260507030130 48 206 0.0 2.0 0.00 0.00 0.00 60 1012.8
20260507030123 48 207 0.0 2.0 0.00 0.00 0.00 60 1012.8
20260507030018 47 186 0.0 2.0 0.00 0.00 0.00 60 1012.8
20260507025912 47 184 0.0 2.0 0.00 0.00 0.00 60 1012.8
20260507025806 47 183 1.0 2.0 0.00 0.00 0.00 61 1013.1
20260507025757 48 203 0.0 0.0 0.00 0.00 0.00 60 1012.4
20260507025753 47 203 0.0 1.0 0.00 0.00 0.00 61 1012.8
20260507025749 47 203 0.0 2.0 0.00 0.00 0.00 62 1012.8
20260507025745 47 186 0.0 0.0 0.00 0.00 0.00 63 1012.8
20260507025734 47 200 0.0 0.0 0.00 0.00 0.00 62 1012.8
20260507025730 47 200 0.0 0.0 0.00 0.00 0.00 61 1012.8
20260507025509 47 203 0.0 2.0 0.00 0.00 0.00 62 1013.1
20260507025505 47 200 0.0 1.0 0.00 0.00 0.00 63 1013.1
20260507025456 47 202 0.0 2.0 0.00 0.00 0.00 62 1013.1
20260507025447 47 204 0.0 2.0 0.00 0.00 0.00 63 1013.1
20260507025438 47 203 0.0 2.0 0.00 0.00 0.00 62 1013.1
20260507025212 48 210 0.0 2.0 0.00 0.00 0.00 63 1012.8
20260507024952 48 210 0.0 2.0 0.00 0.00 0.00 64 1012.8
20260507024944 47 218 0.0 2.0 0.00 0.00 0.00 61 1013.1
20260507024935 47 218 0.0 2.0 0.00 0.00 0.00 61 1013.1
20260507024714 47 203 0.0 2.0 0.00 0.00 0.00 61 1012.8
20260507024705 47 203 1.0 2.0 0.00 0.00 0.00 61 1012.8
20260507024441 47 203 0.0 1.0 0.00 0.00 0.00 63 1012.8
20260507024432 47 203 0.0 1.0 0.00 0.00 0.00 60 1013.1
20260507024423 47 203 0.0 1.0 0.00 0.00 0.00 62 1012.8
20260507024158 48 203 0.0 1.0 0.00 0.00 0.00 63 1012.8
20260507023936 48 202 0.0 1.0 0.00 0.00 0.00 61 1012.8
20260507023932 48 203 0.0 1.0 0.00 0.00 0.00 62 1012.8
20260507023923 48 203 0.0 1.0 0.00 0.00 0.00 62 1012.8
20260507023915 48 202 0.0 1.0 0.00 0.00 0.00 61 1012.8
20260507023906 48 203 0.0 1.0 0.00 0.00 0.00 62 1012.8
20260507023640 48 205 0.0 1.0 0.00 0.00 0.00 61 1012.8
20260507023418 48 210 0.0 1.0 0.00 0.00 0.00 63 1012.8
20260507023414 48 206 1.0 1.0 0.00 0.00 0.00 61 1012.8
20260507023405 48 209 0.0 1.0 0.00 0.00 0.00 63 1012.8
20260507023356 48 210 0.0 1.0 0.00 0.00 0.00 63 1012.8
20260507023122 48 210 0.0 1.0 0.00 0.00 0.00 63 1012.8
20260507023113 48 211 0.0 0.0 0.00 0.00 0.00 62 1012.8
20260507022853 48 203 0.0 0.0 0.00 0.00 0.00 61 1012.8
20260507022849 48 203 0.0 0.0 0.00 0.00 0.00 61 1012.8
20260507022840 48 203 0.0 0.0 0.00 0.00 0.00 63 1013.1
20260507022831 48 203 0.0 0.0 0.00 0.00 0.00 60 1012.8
20260507022607 48 203 0.0 0.0 0.00 0.00 0.00 61 1013.1
20260507022545 48 203 0.0 0.0 0.00 0.00 0.00 61 1013.1
20260507022325 48 203 0.0 0.0 0.00 0.00 0.00 61 1012.8
20260507022316 48 203 0.0 0.0 0.00 0.00 0.00 62 1012.8
20260507022307 48 203 0.0 0.0 0.00 0.00 0.00 61 1012.4
20260507022041 48 203 0.0 0.0 0.00 0.00 0.00 61 1012.4
20260507022037 48 203 0.0 0.0 0.00 0.00 0.00 60 1012.8
20260507022028 48 203 0.0 0.0 0.00 0.00 0.00 62 1012.8
20260507021805 48 203 0.0 0.0 0.00 0.00 0.00 60 1012.8
20260507021756 48 203 0.0 0.0 0.00 0.00 0.00 60 1012.8
20260507021530 48 203 0.0 0.0 0.00 0.00 0.00 61 1012.4
20260507021423 48 203 0.0 0.0 0.00 0.00 0.00 60 1012.8
20260507021319 48 203 0.0 0.0 0.00 0.00 0.00 60 1012.4
20260507021212 48 203 0.0 0.0 0.00 0.00 0.00 60 1012.8
20260507021120 48 203 0.0 0.0 0.00 0.00 0.00 61 1012.8
20260507021030 48 203 0.0 0.0 0.00 0.00 0.00 60 1012.4
20260507021001 48 203 0.0 0.0 0.00 0.00 0.00 60 1012.4
20260507020856 48 203 0.0 0.0 0.00 0.00 0.00 61 1012.8
20260507020751 48 203 0.0 0.0 0.00 0.00 0.00 62 1012.8
20260507020645 48 203 0.0 0.0 0.00 0.00 0.00 61 1012.8
20260507020525 47 203 0.0 0.0 0.00 0.00 0.00 61 1012.8
20260507020434 47 203 0.0 0.0 0.00 0.00 0.00 61 1012.4
20260507020329 47 203 0.0 0.0 0.00 0.00 0.00 62 1012.4
20260507020223 47 203 0.0 0.0 0.00 0.00 0.00 62 1012.4
20260507020118 47 203 0.0 0.0 0.00 0.00 0.00 63 1012.4
20260507020024 48 203 0.0 0.0 0.00 0.00 0.00 63 1012.8
20260507020019 48 203 0.0 0.0 0.00 0.00 0.00 62 1012.8
20260507015913 48 203 0.0 0.0 0.00 0.00 0.00 62 1012.8
20260507015808 48 203 0.0 0.0 0.00 0.00 0.00 62 1012.8
20260507015702 48 203 0.0 0.0 0.00 0.00 0.00 62 1012.4
20260507015557 48 203 0.0 0.0 0.00 0.00 0.00 62 1012.8
20260507015520 48 202 0.0 0.0 0.00 0.00 0.00 61 1012.8
20260507015452 48 203 0.0 0.0 0.00 0.00 0.00 61 1012.8
20260507015347 48 203 0.0 0.0 0.00 0.00 0.00 60 1012.4
20260507015241 48 203 0.0 0.0 0.00 0.00 0.00 60 1012.8
20260507015135 48 203 0.0 0.0 0.00 0.00 0.00 61 1012.8
20260507015014 48 203 0.0 0.0 0.00 0.00 0.00 61 1012.4
20260507014925 48 203 0.0 0.0 0.00 0.00 0.00 60 1012.8
20260507014820 48 203 0.0 0.0 0.00 0.00 0.00 60 1012.8
20260507014713 48 203 0.0 0.0 0.00 0.00 0.00 60 1012.8
20260507014608 48 203 0.0 0.0 0.00 0.00 0.00 59 1012.8
20260507014508 48 203 0.0 0.0 0.00 0.00 0.00 59 1012.8
20260507014502 48 203 0.0 0.0 0.00 0.00 0.00 60 1012.8
20260507014409 48 203 0.0 0.0 0.00 0.00 0.00 59 1012.4
20260507014251 48 219 0.0 0.0 0.00 0.00 0.00 62 1012.4
20260507014146 48 219 0.0 0.0 0.00 0.00 0.00 62 1012.8
20260507014040 48 219 0.0 0.0 0.00 0.00 0.00 62 1012.8
20260507014003 48 219 0.0 0.0 0.00 0.00 0.00 62 1012.8
20260507013934 48 219 0.0 0.0 0.00 0.00 0.00 62 1012.4
20260507013829 48 219 0.0 0.0 0.00 0.00 0.00 61 1012.8
20260507013722 48 219 0.0 0.0 0.00 0.00 0.00 62 1012.8
20260507013618 48 219 0.0 0.0 0.00 0.00 0.00 62 1012.4
20260507013511 48 219 0.0 0.0 0.00 0.00 0.00 62 1012.4
20260507013455 48 219 0.0 0.0 0.00 0.00 0.00 62 1012.4
20260507013406 48 219 0.0 0.0 0.00 0.00 0.00 62 1012.4
20260507013313 48 219 0.0 0.0 0.00 0.00 0.00 62 1012.8
20260507013155 48 219 0.0 0.0 0.00 0.00 0.00 63 1012.4
20260507013049 48 219 0.0 0.0 0.00 0.00 0.00 63 1012.8
20260507012944 48 219 0.0 0.0 0.00 0.00 0.00 63 1012.4
20260507012838 48 219 0.0 0.0 0.00 0.00 0.00 63 1012.4
20260507012733 48 219 0.0 0.0 0.00 0.00 0.00 63 1012.4
20260507012628 48 219 0.0 0.0 0.00 0.00 0.00 62 1012.4
20260507012522 48 219 0.0 0.0 0.00 0.00 0.00 61 1012.4
20260507012418 48 219 0.0 0.0 0.00 0.00 0.00 61 1012.4
20260507012311 48 219 0.0 0.0 0.00 0.00 0.00 61 1012.4
20260507012206 48 219 0.0 0.0 0.00 0.00 0.00 62 1012.4
20260507012059 48 219 0.0 0.0 0.00 0.00 0.00 60 1012.4
20260507011954 48 219 0.0 0.0 0.00 0.00 0.00 60 1012.8
20260507011937 48 219 0.0 0.0 0.00 0.00 0.00 59 1012.8
20260507011848 48 219 0.0 0.0 0.00 0.00 0.00 61 1012.8
20260507011743 48 219 0.0 0.0 0.00 0.00 0.00 60 1012.8
20260507011637 48 219 0.0 0.0 0.00 0.00 0.00 60 1012.8
20260507011532 48 219 0.0 0.0 0.00 0.00 0.00 58 1012.8
20260507011426 48 219 0.0 0.0 0.00 0.00 0.00 58 1012.4
20260507011321 48 219 0.0 0.0 0.00 0.00 0.00 58 1012.4
20260507011216 49 219 0.0 0.0 0.00 0.00 0.00 58 1012.8
20260507011109 49 219 0.0 0.0 0.00 0.00 0.00 57 1012.8
20260507011004 49 219 0.0 0.0 0.00 0.00 0.00 58 1012.4
20260507010926 49 219 0.0 0.0 0.00 0.00 0.00 58 1012.4
20260507010859 49 219 0.0 0.0 0.00 0.00 0.00 57 1012.4
20260507010753 49 219 0.0 0.0 0.00 0.00 0.00 56 1012.4
20260507010648 49 219 0.0 0.0 0.00 0.00 0.00 57 1012.4
20260507010542 49 219 0.0 0.0 0.00 0.00 0.00 57 1012.4
20260507010437 49 219 0.0 0.0 0.00 0.00 0.00 57 1012.4
20260507010422 49 219 0.0 0.0 0.00 0.00 0.00 56 1012.4
20260507010331 49 219 0.0 0.0 0.00 0.00 0.00 56 1012.4
20260507010226 49 219 0.0 1.0 0.00 0.00 0.00 55 1012.4
20260507010120 49 219 0.0 1.0 0.00 0.00 0.00 55 1012.4
20260507010014 49 219 0.0 1.0 0.00 0.00 0.00 56 1012.4
20260507005908 49 219 0.0 1.0 0.00 0.00 0.00 56 1012.8
20260507005803 49 219 0.0 1.0 0.00 0.00 0.00 56 1012.8
20260507005658 49 219 0.0 1.0 0.00 0.00 0.00 56 1012.4
20260507005552 49 219 0.0 1.0 0.00 0.00 0.00 56 1012.4
20260507005447 49 219 0.0 3.0 0.00 0.00 0.00 56 1012.4
20260507005410 49 219 0.0 3.0 0.00 0.00 0.00 56 1012.4
20260507005341 49 219 0.0 3.0 0.00 0.00 0.00 56 1012.4
20260507005236 49 219 0.0 3.0 0.00 0.00 0.00 56 1012.4
20260507005130 49 220 0.0 3.0 0.00 0.00 0.00 55 1012.4
20260507005025 49 220 0.0 3.0 0.00 0.00 0.00 56 1012.4
20260507004904 49 220 0.0 3.0 0.00 0.00 0.00 54 1012.4
20260507004815 49 220 0.0 3.0 0.00 0.00 0.00 55 1012.4
20260507004709 49 220 0.0 3.0 0.00 0.00 0.00 55 1012.4
20260507004604 49 220 0.0 3.0 0.00 0.00 0.00 55 1012.4
20260507004459 49 221 2.0 3.0 0.00 0.00 0.00 54 1012.4
20260507004353 49 203 0.0 1.0 0.00 0.00 0.00 55 1012.4
20260507004247 49 203 0.0 1.0 0.00 0.00 0.00 54 1012.4
20260507004142 49 203 0.0 1.0 0.00 0.00 0.00 53 1012.4
20260507004037 49 202 0.0 1.0 0.00 0.00 0.00 53 1012.4
20260507003931 49 202 0.0 1.0 0.00 0.00 0.00 53 1012.4
20260507003853 49 203 0.0 1.0 0.00 0.00 0.00 54 1012.4
20260507003825 49 203 0.0 1.0 0.00 0.00 0.00 53 1012.4
20260507003720 49 202 0.0 1.0 0.00 0.00 0.00 53 1012.4
20260507003615 49 203 1.0 1.0 0.00 0.00 0.00 54 1012.4
20260507003509 49 186 0.0 2.0 0.00 0.00 0.00 53 1012.4
20260507003404 49 247 0.0 2.0 0.00 0.00 0.00 53 1012.4
20260507003349 49 259 0.0 2.0 0.00 0.00 0.00 53 1012.4
20260507003300 49 265 0.0 2.0 0.00 0.00 0.00 54 1012.4
20260507003153 49 265 0.0 2.0 0.00 0.00 0.00 54 1012.4
20260507003058 49 274 0.0 2.0 0.00 0.00 0.00 53 1012.4
20260507002940 50 187 0.0 2.0 0.00 0.00 0.00 53 1012.4
20260507002834 50 188 0.0 2.0 0.00 0.00 0.00 53 1012.4
20260507002729 49 187 0.0 2.0 0.00 0.00 0.00 53 1012.4
20260507002625 49 217 2.0 2.0 0.00 0.00 0.00 53 1012.4
20260507002521 49 210 1.0 1.0 0.00 0.00 0.00 53 1012.4
20260507002413 49 174 0.0 1.0 0.00 0.00 0.00 54 1012.4
20260507002307 49 179 0.0 2.0 0.00 0.00 0.00 54 1012.4
20260507002202 49 179 0.0 2.0 0.00 0.00 0.00 54 1012.4
20260507002054 50 179 0.0 2.0 0.00 0.00 0.00 53 1012.4
20260507001949 50 179 0.0 2.0 0.00 0.00 0.00 54 1012.4
20260507001828 50 179 0.0 2.0 0.00 0.00 0.00 53 1012.4
20260507001737 50 180 0.0 2.0 0.00 0.00 0.00 53 1012.4
20260507001632 50 215 0.0 2.0 0.00 0.00 0.00 54 1012.4
20260507001527 50 185 0.0 2.0 0.00 0.00 0.00 53 1012.4
20260507001421 50 238 1.0 2.0 0.00 0.00 0.00 53 1012.1
20260507001322 50 206 0.0 1.0 0.00 0.00 0.00 55 1012.4
20260507001316 50 215 0.0 1.0 0.00 0.00 0.00 54 1012.4
20260507001211 50 257 0.0 1.0 0.00 0.00 0.00 53 1012.4
20260507001106 50 257 0.0 1.0 0.00 0.00 0.00 52 1012.4
20260507000958 50 257 0.0 2.0 0.00 0.00 0.00 53 1012.4
20260507000853 50 257 0.0 2.0 0.00 0.00 0.00 54 1012.4
20260507000816 50 261 0.0 2.0 0.00 0.00 0.00 53 1012.4
20260507000801 50 261 0.0 2.0 0.00 0.00 0.00 52 1012.4
20260507000642 50 196 0.0 2.0 0.00 0.00 0.00 52 1012.4
20260507000549 50 188 0.0 2.0 0.00 0.00 0.00 54 1012.4
20260507000431 50 188 0.0 4.0 0.00 0.00 0.00 53 1012.4
20260507000328 50 187 0.0 4.0 0.00 0.00 0.00 53 1012.4
20260507000313 50 208 0.0 4.0 0.00 0.00 0.00 53 1012.4
20260507000221 50 193 0.0 4.0 0.00 0.00 0.00 53 1012.4
20260507000115 50 191 0.0 4.0 0.00 0.00 0.00 51 1012.4
20260507000009 50 258 1.0 4.0 0.00 0.00 0.00 52 1012.4
20260506235903 50 257 0.0 4.0 0.00 0.00 0.00 52 1012.4
20260506235805 50 258 0.0 4.0 0.00 0.00 0.00 51 1012.4
20260506235758 50 258 0.0 4.0 0.00 0.00 0.00 51 1012.4
20260506235652 50 269 0.0 4.0 0.00 0.00 0.00 52 1012.4
20260506235549 50 295 0.0 4.0 0.00 0.00 0.00 53 1012.4
20260506235442 50 273 4.0 4.0 0.00 0.00 0.00 51 1012.4
20260506235336 50 254 0.0 2.0 0.00 0.00 0.00 53 1012.4
20260506235259 50 255 0.0 2.0 0.00 0.00 0.00 52 1012.4
20260506235231 50 228 0.0 2.0 0.00 0.00 0.00 51 1012.4
20260506235125 50 231 0.0 2.0 0.00 0.00 0.00 51 1012.1
20260506235020 50 194 0.0 2.0 0.00 0.00 0.00 52 1012.4
20260506234915 50 247 0.0 2.0 0.00 0.00 0.00 51 1012.4
20260506234809 50 195 0.0 2.0 0.00 0.00 0.00 52 1012.4
20260506234754 50 195 0.0 2.0 0.00 0.00 0.00 51 1012.4
20260506234717 50 195 0.0 2.0 0.00 0.00 0.00 52 1012.1
20260506234557 50 189 1.0 2.0 0.00 0.00 0.00 52 1012.4
20260506234452 50 238 1.0 2.0 0.00 0.00 0.00 51 1012.1
20260506234345 51 249 0.0 2.0 0.00 0.00 0.00 52 1012.4
20260506234247 51 232 2.0 2.0 0.00 0.00 0.00 50 1012.4
20260506234240 51 237 2.0 2.0 0.00 0.00 0.00 51 1012.1
20260506234135 51 175 0.0 2.0 0.00 0.00 0.00 53 1012.1
20260506234029 51 257 0.0 2.0 0.00 0.00 0.00 52 1012.4
20260506233924 51 194 0.0 2.0 0.00 0.00 0.00 52 1012.4
20260506233819 51 190 0.0 3.0 0.00 0.00 0.00 53 1012.1
20260506233741 51 190 0.0 3.0 0.00 0.00 0.00 53 1012.1
20260506233713 51 191 0.0 3.0 0.00 0.00 0.00 51 1012.1
20260506233607 51 191 0.0 3.0 0.00 0.00 0.00 51 1012.1
20260506233501 51 190 0.0 3.0 0.00 0.00 0.00 51 1012.1
20260506233355 51 188 0.0 4.0 0.00 0.00 0.00 50 1012.4
20260506233344 51 173 1.0 6.0 0.00 0.00 0.00 50 1012.1
20260506233340 51 222 0.0 6.0 0.00 0.00 0.00 50 1012.4
20260506233335 51 159 1.0 8.0 0.00 0.00 0.00 49 1012.1
20260506233331 51 203 1.0 6.0 0.00 0.00 0.00 52 1012.1
20260506233327 51 211 0.0 6.0 0.00 0.00 0.00 51 1012.1
20260506233317 51 211 0.0 6.0 0.00 0.00 0.00 51 1012.4
20260506233312 51 202 1.0 6.0 0.00 0.00 0.00 50 1012.4
20260506233053 51 212 1.0 6.0 0.00 0.00 0.00 52 1012.4
20260506233045 51 206 1.0 6.0 0.00 0.00 0.00 51 1012.1
20260506233035 51 201 1.0 6.0 0.00 0.00 0.00 50 1012.1
20260506232815 51 203 1.0 6.0 0.00 0.00 0.00 52 1012.1
20260506232805 51 187 1.0 6.0 0.00 0.00 0.00 50 1012.1
20260506232545 51 294 0.0 6.0 0.00 0.00 0.00 51 1012.4
20260506232541 51 241 1.0 6.0 0.00 0.00 0.00 51 1012.1
20260506232532 51 283 3.0 6.0 0.00 0.00 0.00 50 1012.1
20260506232510 51 275 4.0 6.0 0.00 0.00 0.00 50 1012.1
20260506232247 51 269 1.0 6.0 0.00 0.00 0.00 50 1012.4
20260506232237 51 209 0.0 6.0 0.00 0.00 0.00 51 1012.4
20260506232018 51 263 0.0 6.0 0.00 0.00 0.00 50 1012.1
20260506232010 51 241 0.0 6.0 0.00 0.00 0.00 50 1012.1
20260506232001 51 276 0.0 6.0 0.00 0.00 0.00 51 1012.1
20260506231740 51 327 1.0 6.0 0.00 0.00 0.00 50 1012.1
20260506231731 51 309 0.0 6.0 0.00 0.00 0.00 49 1012.1
20260506231507 51 271 1.0 6.0 0.00 0.00 0.00 50 1012.4
20260506231502 51 202 1.0 6.0 0.00 0.00 0.00 49 1012.1
20260506231454 51 203 0.0 6.0 0.00 0.00 0.00 49 1012.1
20260506231228 51 293 2.0 6.0 0.00 0.00 0.00 49 1012.4
20260506231207 51 252 0.0 6.0 0.00 0.00 0.00 49 1012.4
20260506231158 51 209 0.0 6.0 0.00 0.00 0.00 49 1012.1
20260506230934 51 228 2.0 3.0 0.00 0.00 0.00 49 1012.1
20260506230930 51 191 3.0 6.0 0.00 0.00 0.00 49 1012.4
20260506230921 51 193 4.0 6.0 0.00 0.00 0.00 48 1012.1
20260506230659 51 225 3.0 3.0 0.00 0.00 0.00 49 1012.1
20260506230651 51 197 0.0 3.0 0.00 0.00 0.00 49 1012.1
20260506230431 51 203 0.0 6.0 0.00 0.00 0.00 48 1012.1
20260506230422 51 256 0.0 6.0 0.00 0.00 0.00 49 1012.4
20260506230414 51 222 0.0 6.0 0.00 0.00 0.00 50 1012.4
20260506230147 51 233 2.0 6.0 0.00 0.00 0.00 49 1012.4
20260506230138 51 254 2.0 6.0 0.00 0.00 0.00 48 1012.4
20260506225915 51 284 2.0 6.0 0.00 0.00 0.00 49 1012.1
20260506225906 51 318 3.0 8.0 0.00 0.00 0.00 48 1012.1
20260506225642 51 159 1.0 8.0 0.00 0.00 0.00 49 1012.1
20260506225536 51 280 2.0 8.0 0.00 0.00 0.00 48 1012.4
20260506225430 51 272 4.0 8.0 0.00 0.00 0.00 49 1012.4
20260506225412 52 239 2.0 8.0 0.00 0.00 0.00 48 1012.1
20260506225408 52 270 2.0 8.0 0.00 0.00 0.00 47 1012.1
20260506225359 52 229 2.0 8.0 0.00 0.00 0.00 47 1012.1
20260506225113 52 243 2.0 8.0 0.00 0.00 0.00 48 1012.1
20260506225007 52 271 0.0 8.0 0.00 0.00 0.00 48 1012.1
20260506224902 52 216 2.0 8.0 0.00 0.00 0.00 47 1012.1
20260506224756 52 281 3.0 6.0 0.00 0.00 0.00 48 1012.1
20260506224651 52 220 1.0 6.0 0.00 0.00 0.00 48 1012.4
20260506224634 52 228 2.0 6.0 0.00 0.00 0.00 47 1012.1
20260506224544 52 233 4.0 6.0 0.00 0.00 0.00 48 1012.1
20260506224438 52 210 3.0 6.0 0.00 0.00 0.00 49 1012.1
20260506224333 52 228 0.0 4.0 0.00 0.00 0.00 51 1012.1
20260506224227 51 278 0.0 4.0 0.00 0.00 0.00 50 1012.1
20260506224128 51 227 2.0 4.0 0.00 0.00 0.00 50 1012.1
20260506224122 51 210 1.0 4.0 0.00 0.00 0.00 49 1012.1
20260506224015 51 235 2.0 4.0 0.00 0.00 0.00 50 1012.4
20260506223911 51 172 0.0 3.0 0.00 0.00 0.00 50 1012.4
20260506223804 52 264 0.0 3.0 0.00 0.00 0.00 49 1012.4
20260506223658 52 267 1.0 3.0 0.00 0.00 0.00 49 1012.4
20260506223621 52 265 0.0 3.0 0.00 0.00 0.00 49 1012.4
20260506223554 52 301 0.0 3.0 0.00 0.00 0.00 49 1012.4
20260506223448 52 303 0.0 3.0 0.00 0.00 0.00 48 1012.4
20260506223341 52 298 0.0 3.0 0.00 0.00 0.00 49 1012.1
20260506223238 52 296 1.0 3.0 0.00 0.00 0.00 49 1012.4
20260506223115 51 21 0.0 3.0 0.00 0.00 0.00 49 1012.1
20260506223025 51 6 0.0 3.0 0.00 0.00 0.00 49 1012.4
20260506222919 51 348 0.0 4.0 0.00 0.00 0.00 49 1012.4
20260506222814 51 323 0.0 4.0 0.00 0.00 0.00 49 1012.4
20260506222708 51 25 0.0 4.0 0.00 0.00 0.00 49 1012.4
20260506222608 51 354 0.0 4.0 0.00 0.00 0.00 49 1012.4
20260506222602 51 354 0.0 4.0 0.00 0.00 0.00 49 1012.4
20260506222457 51 270 1.0 4.0 0.00 0.00 0.00 48 1012.4
20260506222351 51 315 1.0 4.0 0.00 0.00 0.00 50 1012.4
20260506222244 51 307 1.0 4.0 0.00 0.00 0.00 50 1012.4
20260506222140 51 248 0.0 4.0 0.00 0.00 0.00 49 1012.4
20260506222102 51 247 0.0 4.0 0.00 0.00 0.00 48 1012.4
20260506222034 52 181 0.0 4.0 0.00 0.00 0.00 50 1012.4
20260506221941 52 271 2.0 2.0 0.00 0.00 0.00 50 1012.4
20260506221823 51 226 1.0 2.0 0.00 0.00 0.00 49 1012.4
20260506221717 52 125 1.0 2.0 0.00 0.00 0.00 48 1012.4
20260506221611 52 163 0.0 2.0 0.00 0.00 0.00 48 1012.4
20260506221556 52 98 0.0 2.0 0.00 0.00 0.00 48 1012.4
20260506221507 52 274 0.0 2.0 0.00 0.00 0.00 50 1012.4
20260506221401 52 309 0.0 2.0 0.00 0.00 0.00 49 1012.4
20260506221254 52 323 2.0 2.0 0.00 0.00 0.00 48 1012.4
20260506221149 52 322 1.0 2.0 0.00 0.00 0.00 48 1012.4
20260506221100 52 67 0.0 2.0 0.00 0.00 0.00 49 1012.4
20260506221056 52 115 0.0 2.0 0.00 0.00 0.00 49 1012.4
20260506220938 52 120 0.0 3.0 0.00 0.00 0.00 48 1012.4
20260506220846 52 266 0.0 3.0 0.00 0.00 0.00 47 1012.4
20260506220726 52 252 0.0 3.0 0.00 0.00 0.00 48 1012.4
20260506220621 52 214 0.0 6.0 0.00 0.00 0.00 47 1012.4
20260506220543 52 226 0.0 6.0 0.00 0.00 0.00 47 1012.4
20260506220515 52 302 0.0 6.0 0.00 0.00 0.00 49 1012.1
20260506220410 52 189 0.0 6.0 0.00 0.00 0.00 49 1012.4
20260506220304 52 188 0.0 6.0 0.00 0.00 0.00 48 1012.4
20260506220159 52 317 0.0 6.0 0.00 0.00 0.00 48 1012.4
20260506220105 52 336 2.0 6.0 0.00 0.00 0.00 48 1012.1
20260506220038 52 336 2.0 6.0 0.00 0.00 0.00 48 1012.4
20260506215947 52 273 2.0 6.0 0.00 0.00 0.00 48 1012.4
20260506215842 52 234 2.0 6.0 0.00 0.00 0.00 49 1012.4
20260506215736 53 282 3.0 6.0 0.00 0.00 0.00 46 1012.4
20260506215631 53 170 1.0 3.0 0.00 0.00 0.00 47 1012.4
20260506215531 52 323 0.0 3.0 0.00 0.00 0.00 47 1012.4
20260506215524 52 328 0.0 3.0 0.00 0.00 0.00 47 1012.4
20260506215419 52 298 0.0 3.0 0.00 0.00 0.00 49 1012.4
20260506215313 51 143 0.0 4.0 0.00 0.00 0.00 50 1012.4
20260506215208 51 7 0.0 4.0 0.00 0.00 0.00 50 1012.4
20260506215102 51 339 0.0 4.0 0.00 0.00 0.00 51 1012.4
20260506215023 51 244 0.0 4.0 0.00 0.00 0.00 50 1012.4
20260506214956 51 265 0.0 4.0 0.00 0.00 0.00 51 1012.4
20260506214850 51 329 0.0 8.0 0.00 0.00 0.00 50 1012.4
20260506214745 51 29 0.0 8.0 0.00 0.00 0.00 50 1012.4
20260506214639 50 252 0.0 8.0 0.00 0.00 0.00 52 1012.4
20260506214533 50 255 0.0 8.0 0.00 0.00 0.00 51 1012.4
20260506214518 50 255 0.0 8.0 0.00 0.00 0.00 51 1012.4
20260506214427 50 266 0.0 8.0 0.00 0.00 0.00 50 1012.4
20260506214322 50 313 2.0 8.0 0.00 0.00 0.00 50 1012.4
20260506214216 50 332 2.0 8.0 0.00 0.00 0.00 50 1012.4
20260506214110 51 330 4.0 8.0 0.00 0.00 0.00 50 1012.4
20260506214011 51 355 1.0 8.0 0.00 0.00 0.00 50 1012.4
20260506214004 51 68 3.0 8.0 0.00 0.00 0.00 50 1012.4
20260506213858 51 345 1.0 6.0 0.00 0.00 0.00 49 1012.1
20260506213753 51 316 0.0 6.0 0.00 0.00 0.00 50 1012.1
20260506213647 51 265 0.0 6.0 0.00 0.00 0.00 50 1012.4
20260506213542 51 309 1.0 6.0 0.00 0.00 0.00 49 1012.4
20260506213504 51 329 4.0 6.0 0.00 0.00 0.00 50 1012.4
20260506213436 51 345 1.0 6.0 0.00 0.00 0.00 51 1012.4
20260506213330 51 338 3.0 6.0 0.00 0.00 0.00 50 1012.4
20260506213226 51 343 1.0 6.0 0.00 0.00 0.00 49 1012.4
20260506213117 52 344 0.0 6.0 0.00 0.00 0.00 51 1012.4
20260506213012 52 225 3.0 6.0 0.00 0.00 0.00 49 1012.4
20260506212956 52 225 3.0 6.0 0.00 0.00 0.00 49 1012.4
20260506212906 51 193 1.0 6.0 0.00 0.00 0.00 50 1012.1
20260506212759 51 193 0.0 6.0 0.00 0.00 0.00 51 1012.4
20260506212655 51 211 1.0 6.0 0.00 0.00 0.00 49 1012.4
20260506212548 51 197 1.0 4.0 0.00 0.00 0.00 50 1012.4
20260506212449 51 214 0.0 4.0 0.00 0.00 0.00 50 1012.1
20260506212443 51 226 1.0 4.0 0.00 0.00 0.00 50 1012.1
20260506212338 51 183 0.0 4.0 0.00 0.00 0.00 49 1012.4
20260506212232 51 220 3.0 4.0 0.00 0.00 0.00 49 1012.4
20260506212126 51 199 0.0 6.0 0.00 0.00 0.00 49 1012.1
20260506212019 51 223 0.0 6.0 0.00 0.00 0.00 49 1012.1
20260506211941 51 232 0.0 6.0 0.00 0.00 0.00 49 1012.1
20260506211913 51 219 0.0 6.0 0.00 0.00 0.00 49 1012.4
20260506211808 51 273 4.0 6.0 0.00 0.00 0.00 49 1012.1
20260506211702 50 244 0.0 6.0 0.00 0.00 0.00 51 1012.4
20260506211557 51 176 0.0 6.0 0.00 0.00 0.00 50 1012.1
20260506211451 51 147 0.0 6.0 0.00 0.00 0.00 49 1012.1
20260506211435 51 197 0.0 6.0 0.00 0.00 0.00 49 1012.1
20260506211345 51 142 4.0 6.0 0.00 0.00 0.00 49 1012.1
20260506211239 52 237 0.0 6.0 0.00 0.00 0.00 49 1012.4
20260506211132 52 177 2.0 6.0 0.00 0.00 0.00 49 1012.4
20260506211027 51 229 1.0 3.0 0.00 0.00 0.00 49 1012.4
20260506210926 51 235 1.0 3.0 0.00 0.00 0.00 50 1012.4
20260506210920 51 249 1.0 3.0 0.00 0.00 0.00 50 1012.4
20260506210815 51 225 2.0 3.0 0.00 0.00 0.00 52 1012.4
20260506210709 51 143 1.0 3.0 0.00 0.00 0.00 50 1012.4
20260506210604 52 259 1.0 4.0 0.00 0.00 0.00 49 1012.4
20260506210457 51 183 0.0 4.0 0.00 0.00 0.00 50 1012.4
20260506210420 51 213 0.0 4.0 0.00 0.00 0.00 50 1012.4
20260506210353 51 220 0.0 4.0 0.00 0.00 0.00 51 1012.4
20260506210247 52 348 0.0 4.0 0.00 0.00 0.00 50 1012.1
20260506210141 52 353 0.0 4.0 0.00 0.00 0.00 51 1012.4
20260506210048 51 300 0.0 4.0 0.00 0.00 0.00 51 1012.4
20260506205914 51 327 0.0 4.0 0.00 0.00 0.00 50 1012.1
20260506205824 51 39 0.0 4.0 0.00 0.00 0.00 52 1012.4
20260506205719 50 38 0.0 4.0 0.00 0.00 0.00 51 1012.4
20260506205613 51 342 3.0 3.0 0.00 0.00 0.00 52 1012.4
20260506205508 50 214 0.0 3.0 0.00 0.00 0.00 52 1012.4
20260506205408 50 251 0.0 3.0 0.00 0.00 0.00 52 1012.1
20260506205402 50 251 0.0 3.0 0.00 0.00 0.00 52 1012.1
20260506205256 50 175 0.0 3.0 0.00 0.00 0.00 51 1012.4
20260506205151 50 214 1.0 3.0 0.00 0.00 0.00 51 1012.4
20260506205044 50 259 2.0 4.0 0.00 0.00 0.00 52 1012.1
20260506204939 50 160 0.0 4.0 0.00 0.00 0.00 51 1012.4
20260506204900 50 13 0.0 4.0 0.00 0.00 0.00 51 1012.4
20260506204833 50 312 0.0 4.0 0.00 0.00 0.00 52 1012.4
20260506204727 51 328 0.0 6.0 0.00 0.00 0.00 50 1012.4
20260506204622 51 326 3.0 6.0 0.00 0.00 0.00 50 1012.4
20260506204516 51 287 0.0 6.0 0.00 0.00 0.00 51 1012.4
20260506204411 51 245 0.0 6.0 0.00 0.00 0.00 51 1012.4
20260506204354 51 336 1.0 6.0 0.00 0.00 0.00 51 1012.4
20260506204304 51 351 0.0 6.0 0.00 0.00 0.00 51 1012.4
20260506204159 51 326 2.0 6.0 0.00 0.00 0.00 51 1012.4
20260506204053 51 320 0.0 6.0 0.00 0.00 0.00 50 1012.4
20260506203947 51 342 0.0 6.0 0.00 0.00 0.00 51 1012.4
20260506203841 51 219 0.0 6.0 0.00 0.00 0.00 50 1012.1
20260506203736 51 249 1.0 3.0 0.00 0.00 0.00 51 1012.4
20260506203631 51 326 0.0 3.0 0.00 0.00 0.00 51 1012.1
20260506203525 51 63 0.0 3.0 0.00 0.00 0.00 51 1012.1
20260506203420 51 309 0.0 3.0 0.00 0.00 0.00 51 1012.1
20260506203341 51 315 2.0 3.0 0.00 0.00 0.00 50 1012.1
20260506203314 51 276 1.0 6.0 0.00 0.00 0.00 49 1012.1
20260506203210 51 238 1.0 6.0 0.00 0.00 0.00 51 1012.1
20260506203102 51 321 0.0 6.0 0.00 0.00 0.00 50 1012.1
20260506202957 51 325 2.0 6.0 0.00 0.00 0.00 51 1012.1
20260506202836 51 3 0.0 6.0 0.00 0.00 0.00 50 1012.1
20260506202745 51 309 1.0 6.0 0.00 0.00 0.00 50 1012.1
20260506202638 51 310 2.0 6.0 0.00 0.00 0.00 50 1012.1
20260506202533 51 223 1.0 6.0 0.00 0.00 0.00 51 1012.1
20260506202427 51 341 2.0 6.0 0.00 0.00 0.00 50 1012.1
20260506202322 51 38 0.0 4.0 0.00 0.00 0.00 50 1012.4
20260506202216 52 184 0.0 6.0 0.00 0.00 0.00 50 1012.4
20260506202110 52 259 1.0 6.0 0.00 0.00 0.00 50 1012.1
20260506202004 53 216 2.0 6.0 0.00 0.00 0.00 49 1012.1
20260506201859 53 319 1.0 6.0 0.00 0.00 0.00 50 1012.1
20260506201822 53 19 2.0 6.0 0.00 0.00 0.00 51 1012.4
20260506201752 53 76 1.0 6.0 0.00 0.00 0.00 51 1012.4
20260506201648 53 349 4.0 6.0 0.00 0.00 0.00 49 1012.4
20260506201542 53 248 0.0 6.0 0.00 0.00 0.00 48 1012.4
20260506201437 53 249 0.0 6.0 0.00 0.00 0.00 49 1012.4
20260506201330 53 265 4.0 7.0 0.00 0.00 0.00 50 1012.1
20260506201315 53 109 0.0 7.0 0.00 0.00 0.00 52 1012.1
20260506201225 53 276 0.0 7.0 0.00 0.00 0.00 49 1012.1
20260506201120 53 270 0.0 7.0 0.00 0.00 0.00 47 1012.4
20260506201013 53 137 0.0 7.0 0.00 0.00 0.00 48 1012.4
20260506200908 51 253 1.0 7.0 0.00 0.00 0.00 51 1012.4
20260506200809 51 299 0.0 7.0 0.00 0.00 0.00 50 1012.4
20260506200803 51 312 0.0 7.0 0.00 0.00 0.00 50 1012.4
20260506200657 51 282 2.0 7.0 0.00 0.00 0.00 49 1012.4
20260506200552 51 265 2.0 7.0 0.00 0.00 0.00 48 1012.4
20260506200445 51 254 2.0 7.0 0.00 0.00 0.00 49 1012.4
20260506200339 51 336 3.0 7.0 0.00 0.00 0.00 49 1012.1
20260506200302 51 305 1.0 7.0 0.00 0.00 0.00 49 1012.1
20260506200247 51 310 2.0 7.0 0.00 0.00 0.00 49 1012.4
20260506200141 51 189 0.0 7.0 0.00 0.00 0.00 49 1012.4
20260506200023 51 291 3.0 7.0 0.00 0.00 0.00 49 1012.1
20260506195917 51 310 0.0 7.0 0.00 0.00 0.00 51 1012.4
20260506195811 51 298 1.0 7.0 0.00 0.00 0.00 51 1012.1
20260506195756 51 298 1.0 7.0 0.00 0.00 0.00 51 1012.1
20260506195707 51 319 4.0 7.0 0.00 0.00 0.00 50 1012.4
20260506195559 51 21 0.0 6.0 0.00 0.00 0.00 51 1012.4
20260506195454 51 325 0.0 7.0 0.00 0.00 0.00 49 1012.4
20260506195348 51 38 1.0 7.0 0.00 0.00 0.00 50 1012.1
20260506195249 51 30 1.0 7.0 0.00 0.00 0.00 50 1012.4
20260506195244 51 335 2.0 7.0 0.00 0.00 0.00 51 1012.4
20260506195138 51 357 1.0 7.0 0.00 0.00 0.00 51 1012.1
20260506195031 52 319 2.0 7.0 0.00 0.00 0.00 51 1012.1
20260506194926 52 266 2.0 7.0 0.00 0.00 0.00 49 1012.4
20260506194820 53 358 0.0 7.0 0.00 0.00 0.00 50 1012.4
20260506194743 53 316 3.0 7.0 0.00 0.00 0.00 49 1012.4
20260506194714 53 316 1.0 7.0 0.00 0.00 0.00 50 1012.4
20260506194609 52 29 3.0 7.0 0.00 0.00 0.00 50 1012.1
20260506194503 51 313 0.0 4.0 0.00 0.00 0.00 50 1012.4
20260506194358 51 323 0.0 4.0 0.00 0.00 0.00 50 1012.1
20260506194252 51 357 0.0 4.0 0.00 0.00 0.00 50 1012.4
20260506194237 51 300 0.0 4.0 0.00 0.00 0.00 50 1012.4
20260506194147 51 331 0.0 4.0 0.00 0.00 0.00 51 1012.4
20260506194040 52 311 0.0 4.0 0.00 0.00 0.00 49 1012.4
20260506193935 53 359 0.0 4.0 0.00 0.00 0.00 49 1012.4
20260506193829 53 304 0.0 7.0 0.00 0.00 0.00 49 1012.4
20260506193730 53 284 2.0 7.0 0.00 0.00 0.00 48 1012.4
20260506193724 53 350 2.0 7.0 0.00 0.00 0.00 49 1012.4
20260506193619 53 314 3.0 7.0 0.00 0.00 0.00 47 1012.4
20260506193512 53 37 2.0 7.0 0.00 0.00 0.00 49 1012.4
20260506193406 52 224 1.0 7.0 0.00 0.00 0.00 49 1012.4
20260506193301 52 345 1.0 7.0 0.00 0.00 0.00 48 1012.4
20260506193224 52 306 0.0 7.0 0.00 0.00 0.00 47 1012.4
20260506193157 52 334 3.0 7.0 0.00 0.00 0.00 48 1012.4
20260506193050 52 63 1.0 7.0 0.00 0.00 0.00 48 1012.4
20260506192945 53 60 0.0 7.0 0.00 0.00 0.00 48 1012.4
20260506192839 52 322 6.0 8.0 0.00 0.00 0.00 47 1012.4
20260506192717 51 356 1.0 8.0 0.00 0.00 0.00 50 1012.4
20260506192628 51 2 1.0 8.0 0.00 0.00 0.00 50 1012.4
20260506192520 51 42 1.0 8.0 0.00 0.00 0.00 50 1012.4
20260506192414 50 302 3.0 8.0 0.00 0.00 0.00 51 1012.8
20260506192308 50 358 2.0 8.0 0.00 0.00 0.00 51 1012.4
20260506192209 50 242 5.0 8.0 0.00 0.00 0.00 50 1012.4
20260506192203 50 355 4.0 8.0 0.00 0.00 0.00 50 1012.4
20260506192057 50 296 4.0 8.0 0.00 0.00 0.00 50 1012.4
20260506191951 51 341 3.0 8.0 0.00 0.00 0.00 51 1012.4
20260506191846 51 6 3.0 9.0 0.00 0.00 0.00 50 1012.4
20260506191740 51 359 2.0 9.0 0.00 0.00 0.00 51 1012.4
20260506191702 51 289 1.0 9.0 0.00 0.00 0.00 51 1012.4
20260506191634 51 314 1.0 9.0 0.00 0.00 0.00 50 1012.4
20260506191527 51 319 5.0 9.0 0.00 0.00 0.00 50 1012.4
20260506191422 51 341 3.0 9.0 0.00 0.00 0.00 50 1012.4
20260506191329 51 181 4.0 9.0 0.00 0.00 0.00 51 1012.4
20260506191211 51 285 1.0 9.0 0.00 0.00 0.00 52 1012.4
20260506191155 51 323 2.0 9.0 0.00 0.00 0.00 51 1012.4
20260506191118 51 302 1.0 9.0 0.00 0.00 0.00 50 1012.4
20260506190959 50 352 0.0 9.0 0.00 0.00 0.00 52 1012.1
20260506190854 50 55 0.0 8.0 0.00 0.00 0.00 52 1012.4
20260506190749 50 347 0.0 8.0 0.00 0.00 0.00 52 1012.4
20260506190650 50 339 3.0 8.0 0.00 0.00 0.00 51 1012.1
20260506190643 50 15 0.0 8.0 0.00 0.00 0.00 52 1012.1
20260506190537 51 333 7.0 8.0 0.00 0.00 0.00 50 1012.4
20260506190444 51 334 2.0 4.0 0.00 0.00 0.00 51 1012.4
20260506190328 51 320 2.0 4.0 0.00 0.00 0.00 50 1012.1
20260506190220 51 300 0.0 4.0 0.00 0.00 0.00 51 1012.4
20260506190144 51 262 0.0 4.0 0.00 0.00 0.00 49 1012.4
20260506190114 51 286 0.0 4.0 0.00 0.00 0.00 50 1012.4
20260506190009 51 247 1.0 4.0 0.00 0.00 0.00 51 1012.4
20260506185903 51 112 1.0 7.0 0.00 0.00 0.00 51 1012.1
20260506185757 51 265 2.0 7.0 0.00 0.00 0.00 50 1012.4
20260506185652 51 265 1.0 7.0 0.00 0.00 0.00 50 1012.4
20260506185636 51 265 1.0 7.0 0.00 0.00 0.00 50 1012.1
20260506185545 51 309 0.0 7.0 0.00 0.00 0.00 51 1012.1
20260506185440 50 294 0.0 7.0 0.00 0.00 0.00 52 1012.4
20260506185334 50 245 0.0 7.0 0.00 0.00 0.00 52 1012.4
20260506185229 51 262 0.0 7.0 0.00 0.00 0.00 51 1012.4
20260506185129 51 278 0.0 7.0 0.00 0.00 0.00 52 1012.4
20260506185123 51 277 0.0 7.0 0.00 0.00 0.00 52 1012.4
20260506185017 51 288 3.0 7.0 0.00 0.00 0.00 51 1012.1
20260506184911 51 305 1.0 4.0 0.00 0.00 0.00 50 1012.4
20260506184805 51 252 1.0 4.0 0.00 0.00 0.00 51 1012.4
20260506184659 51 318 0.0 4.0 0.00 0.00 0.00 51 1012.4
20260506184621 50 289 1.0 4.0 0.00 0.00 0.00 52 1012.1
20260506184553 50 286 1.0 4.0 0.00 0.00 0.00 52 1012.1
20260506184447 51 303 2.0 4.0 0.00 0.00 0.00 50 1012.4
20260506184341 51 330 2.0 4.0 0.00 0.00 0.00 50 1012.4
20260506184236 51 147 1.0 3.0 0.00 0.00 0.00 52 1012.4
20260506184130 51 329 0.0 3.0 0.00 0.00 0.00 52 1012.4
20260506184115 51 327 0.0 3.0 0.00 0.00 0.00 51 1012.4
20260506184024 51 320 0.0 3.0 0.00 0.00 0.00 52 1012.4
20260506183918 51 225 0.0 3.0 0.00 0.00 0.00 54 1012.4
20260506183813 50 151 1.0 3.0 0.00 0.00 0.00 54 1012.1
20260506183707 50 333 1.0 3.0 0.00 0.00 0.00 52 1012.4
20260506183608 50 269 0.0 3.0 0.00 0.00 0.00 53 1012.4
20260506183601 50 328 1.0 3.0 0.00 0.00 0.00 53 1012.4
20260506183454 50 348 2.0 3.0 0.00 0.00 0.00 53 1012.4
20260506183348 50 338 3.0 3.0 0.00 0.00 0.00 52 1012.4
20260506183243 51 332 2.0 3.0 0.00 0.00 0.00 51 1012.1
20260506183138 51 332 3.0 3.0 0.00 0.00 0.00 53 1012.4
20260506183100 51 327 2.0 3.0 0.00 0.00 0.00 51 1012.4
20260506183032 52 288 1.0 3.0 0.00 0.00 0.00 51 1012.4
20260506182927 52 256 2.0 3.0 0.00 0.00 0.00 51 1012.4
20260506182821 51 146 0.0 4.0 0.00 0.00 0.00 52 1012.4
20260506182716 51 332 1.0 6.0 0.00 0.00 0.00 50 1012.4
20260506182609 51 310 1.0 6.0 0.00 0.00 0.00 52 1012.4
20260506182554 51 310 1.0 6.0 0.00 0.00 0.00 52 1012.4
20260506182504 51 323 2.0 6.0 0.00 0.00 0.00 51 1012.4
20260506182358 51 209 0.0 6.0 0.00 0.00 0.00 52 1012.4
20260506182253 51 128 0.0 6.0 0.00 0.00 0.00 52 1012.4
20260506182148 51 266 0.0 6.0 0.00 0.00 0.00 53 1012.4
20260506182042 51 266 2.0 6.0 0.00 0.00 0.00 54 1012.4
20260506181936 51 261 1.0 6.0 0.00 0.00 0.00 53 1012.4
20260506181831 51 203 2.0 6.0 0.00 0.00 0.00 53 1012.4
20260506181725 51 273 2.0 3.0 0.00 0.00 0.00 53 1012.4
20260506181618 51 256 2.0 6.0 0.00 0.00 0.00 52 1012.4
20260506181541 51 303 2.0 6.0 0.00 0.00 0.00 52 1012.4
20260506181513 52 330 0.0 6.0 0.00 0.00 0.00 51 1012.4
20260506181406 53 312 0.0 6.0 0.00 0.00 0.00 50 1012.4
20260506181301 53 323 0.0 6.0 0.00 0.00 0.00 53 1012.4
20260506181155 52 3 0.0 6.0 0.00 0.00 0.00 52 1012.4
20260506181050 52 243 2.0 6.0 0.00 0.00 0.00 55 1012.4
20260506181034 51 235 1.0 6.0 0.00 0.00 0.00 54 1012.4
20260506180944 51 139 1.0 6.0 0.00 0.00 0.00 55 1012.4
20260506180839 51 99 0.0 6.0 0.00 0.00 0.00 54 1012.4
20260506180733 52 343 0.0 6.0 0.00 0.00 0.00 53 1012.4
20260506180627 52 328 4.0 7.0 0.00 0.00 0.00 53 1012.4
20260506180526 51 84 0.0 7.0 0.00 0.00 0.00 55 1012.4
20260506180521 51 64 1.0 7.0 0.00 0.00 0.00 55 1012.4
20260506180414 51 37 1.0 7.0 0.00 0.00 0.00 54 1012.4
20260506180310 50 349 0.0 7.0 0.00 0.00 0.00 54 1012.4
20260506180203 50 351 1.0 7.0 0.00 0.00 0.00 55 1012.4
20260506180111 50 32 2.0 7.0 0.00 0.00 0.00 55 1012.4
20260506180020 50 19 0.0 7.0 0.00 0.00 0.00 56 1012.8
20260506175952 49 343 0.0 7.0 0.00 0.00 0.00 57 1012.8
20260506175847 49 299 1.0 7.0 0.00 0.00 0.00 57 1012.8
20260506175741 49 311 1.0 7.0 0.00 0.00 0.00 56 1012.8
20260506175635 49 337 3.0 7.0 0.00 0.00 0.00 58 1012.8
20260506175514 49 33 0.0 7.0 0.00 0.00 0.00 57 1012.8
20260506175425 49 285 2.0 7.0 0.00 0.00 0.00 57 1012.8
20260506175319 49 297 0.0 7.0 0.00 0.00 0.00 56 1012.4
20260506175212 49 338 0.0 7.0 0.00 0.00 0.00 56 1012.8
20260506175106 49 330 2.0 9.0 0.00 0.00 0.00 57 1012.8
20260506175007 49 281 2.0 9.0 0.00 0.00 0.00 56 1012.8
20260506175001 49 281 2.0 9.0 0.00 0.00 0.00 56 1012.8
20260506174854 49 336 2.0 9.0 0.00 0.00 0.00 57 1012.8
20260506174749 49 298 2.0 9.0 0.00 0.00 0.00 56 1012.8
20260506174643 49 319 3.0 9.0 0.00 0.00 0.00 56 1012.8
20260506174538 49 332 0.0 9.0 0.00 0.00 0.00 55 1012.8
20260506174500 49 305 0.0 9.0 0.00 0.00 0.00 56 1012.8
20260506174432 49 14 0.0 9.0 0.00 0.00 0.00 56 1012.8
20260506174327 49 289 0.0 9.0 0.00 0.00 0.00 55 1012.4
20260506174221 49 340 2.0 9.0 0.00 0.00 0.00 55 1012.4
20260506174116 49 347 3.0 8.0 0.00 0.00 0.00 55 1012.8
20260506174011 49 236 1.0 8.0 0.00 0.00 0.00 55 1012.8
20260506173954 49 288 1.0 8.0 0.00 0.00 0.00 54 1012.8
20260506173905 49 3 4.0 8.0 0.00 0.00 0.00 54 1012.8
20260506173759 49 323 4.0 8.0 0.00 0.00 0.00 54 1012.8
20260506173653 49 356 3.0 8.0 0.00 0.00 0.00 56 1012.4
20260506173548 49 330 0.0 8.0 0.00 0.00 0.00 54 1012.4
20260506173449 49 328 4.0 8.0 0.00 0.00 0.00 53 1012.8
20260506173442 50 339 2.0 7.0 0.00 0.00 0.00 53 1012.8
20260506173336 50 338 2.0 7.0 0.00 0.00 0.00 54 1012.4
20260506173230 51 343 1.0 7.0 0.00 0.00 0.00 52 1012.4
20260506173126 51 71 0.0 7.0 0.00 0.00 0.00 52 1012.8
20260506173019 52 246 0.0 7.0 0.00 0.00 0.00 52 1012.4
20260506172941 52 299 4.0 7.0 0.00 0.00 0.00 51 1012.4
20260506172913 52 310 0.0 7.0 0.00 0.00 0.00 52 1012.8
20260506172808 52 233 1.0 7.0 0.00 0.00 0.00 53 1012.4
20260506172702 51 312 2.0 7.0 0.00 0.00 0.00 55 1012.8
20260506172556 50 298 0.0 7.0 0.00 0.00 0.00 54 1012.4
20260506172450 50 349 0.0 7.0 0.00 0.00 0.00 55 1012.8
20260506172434 50 349 0.0 7.0 0.00 0.00 0.00 55 1012.4
20260506172344 50 252 0.0 7.0 0.00 0.00 0.00 54 1012.4
20260506172239 50 289 0.0 7.0 0.00 0.00 0.00 54 1012.8
20260506172132 50 261 1.0 7.0 0.00 0.00 0.00 54 1012.4
20260506172106 49 342 1.0 7.0 0.00 0.00 0.00 54 1012.4
20260506172102 50 296 3.0 4.0 0.00 0.00 0.00 53 1012.4
20260506172057 51 302 2.0 7.0 0.00 0.00 0.00 51 1012.4
20260506172053 51 357 2.0 10.0 0.00 0.00 0.00 49 1012.4
20260506172047 50 298 1.0 7.0 0.00 0.00 0.00 54 1012.4
20260506172032 50 312 1.0 7.0 0.00 0.00 0.00 55 1012.4
20260506172023 50 291 1.0 7.0 0.00 0.00 0.00 54 1012.4
20260506171804 51 320 2.0 6.0 0.00 0.00 0.00 53 1012.8
20260506171755 51 325 1.0 6.0 0.00 0.00 0.00 53 1012.4
20260506171532 51 73 1.0 6.0 0.00 0.00 0.00 53 1012.4
20260506171509 51 316 2.0 6.0 0.00 0.00 0.00 53 1012.4
20260506171504 51 342 2.0 6.0 0.00 0.00 0.00 53 1012.4
20260506171456 51 61 0.0 6.0 0.00 0.00 0.00 53 1012.4
20260506171231 51 323 0.0 6.0 0.00 0.00 0.00 55 1012.4
20260506171222 50 14 1.0 7.0 0.00 0.00 0.00 56 1012.4
20260506170957 50 308 2.0 7.0 0.00 0.00 0.00 55 1012.4
20260506170946 49 310 1.0 7.0 0.00 0.00 0.00 57 1012.4
20260506170942 49 276 1.0 7.0 0.00 0.00 0.00 56 1012.4
20260506170933 49 9 0.0 7.0 0.00 0.00 0.00 55 1012.4
20260506170710 49 342 0.0 7.0 0.00 0.00 0.00 54 1012.4
20260506170701 49 348 0.0 7.0 0.00 0.00 0.00 54 1012.4
20260506170436 49 330 1.0 8.0 0.00 0.00 0.00 54 1012.4
20260506170428 49 288 4.0 8.0 0.00 0.00 0.00 54 1012.4
20260506170159 50 247 3.0 8.0 0.00 0.00 0.00 53 1012.8
20260506170151 50 348 4.0 8.0 0.00 0.00 0.00 53 1012.4
20260506170142 50 354 0.0 8.0 0.00 0.00 0.00 53 1012.4
20260506165916 50 297 0.0 8.0 0.00 0.00 0.00 53 1012.4
20260506165912 50 250 1.0 8.0 0.00 0.00 0.00 53 1012.4
20260506165903 50 317 2.0 8.0 0.00 0.00 0.00 53 1012.8
20260506165639 49 356 0.0 8.0 0.00 0.00 0.00 53 1012.4
20260506165630 49 352 2.0 8.0 0.00 0.00 0.00 53 1012.4
20260506165621 50 296 3.0 4.0 0.00 0.00 0.00 53 1012.4
20260506165359 50 304 1.0 4.0 0.00 0.00 0.00 54 1012.4
20260506165351 50 238 0.0 4.0 0.00 0.00 0.00 54 1012.4
20260506165131 50 71 1.0 3.0 0.00 0.00 0.00 54 1012.4
20260506165122 50 297 0.0 3.0 0.00 0.00 0.00 53 1012.4
20260506164901 50 212 0.0 7.0 0.00 0.00 0.00 54 1012.4
20260506164857 50 227 1.0 7.0 0.00 0.00 0.00 54 1012.4
20260506164848 50 254 0.0 7.0 0.00 0.00 0.00 53 1012.4
20260506164839 51 198 0.0 7.0 0.00 0.00 0.00 52 1012.4
20260506164616 51 340 0.0 7.0 0.00 0.00 0.00 50 1012.4
20260506164607 51 270 0.0 7.0 0.00 0.00 0.00 52 1012.4
20260506164345 51 310 2.0 7.0 0.00 0.00 0.00 49 1012.4
20260506164336 51 278 0.0 10.0 0.00 0.00 0.00 52 1012.4
20260506164113 51 303 0.0 10.0 0.00 0.00 0.00 49 1012.4
20260506164104 51 317 0.0 10.0 0.00 0.00 0.00 50 1012.4
20260506164056 51 328 3.0 10.0 0.00 0.00 0.00 50 1012.4
20260506163749 51 45 2.0 10.0 0.00 0.00 0.00 50 1012.4
20260506163643 51 340 1.0 10.0 0.00 0.00 0.00 50 1012.4
20260506163537 51 314 2.0 10.0 0.00 0.00 0.00 51 1012.4
20260506163432 51 344 0.0 10.0 0.00 0.00 0.00 52 1012.4
20260506163327 51 322 0.0 10.0 0.00 0.00 0.00 55 1012.4
20260506163221 52 225 0.0 6.0 0.00 0.00 0.00 52 1012.4
20260506163115 53 261 3.0 6.0 0.00 0.00 0.00 52 1012.4
20260506163009 52 285 1.0 6.0 0.00 0.00 0.00 52 1012.4
20260506162904 52 304 1.0 6.0 0.00 0.00 0.00 51 1012.8
20260506162826 52 341 0.0 6.0 0.00 0.00 0.00 51 1012.4
20260506162758 52 175 2.0 6.0 0.00 0.00 0.00 51 1012.4
20260506162652 52 263 3.0 6.0 0.00 0.00 0.00 53 1012.4
20260506162547 52 317 0.0 6.0 0.00 0.00 0.00 52 1012.4
20260506162441 52 353 0.0 6.0 0.00 0.00 0.00 51 1012.4
20260506162336 51 309 2.0 6.0 0.00 0.00 0.00 51 1012.4
20260506162319 51 48 2.0 6.0 0.00 0.00 0.00 52 1012.4
20260506162229 51 268 0.0 6.0 0.00 0.00 0.00 53 1012.4
20260506162136 51 325 0.0 6.0 0.00 0.00 0.00 53 1012.4
20260506162021 51 246 1.0 6.0 0.00 0.00 0.00 53 1012.4
20260506161925 51 247 2.0 9.0 0.00 0.00 0.00 56 1012.4
20260506161813 51 248 0.0 9.0 0.00 0.00 0.00 54 1012.4
20260506161807 51 268 4.0 9.0 0.00 0.00 0.00 53 1012.4
20260506161704 51 80 2.0 9.0 0.00 0.00 0.00 53 1012.4
20260506161555 51 285 1.0 10.0 0.00 0.00 0.00 53 1012.4
20260506161451 51 221 2.0 10.0 0.00 0.00 0.00 53 1012.4
20260506161345 50 205 3.0 10.0 0.00 0.00 0.00 52 1012.4
20260506161306 50 225 3.0 10.0 0.00 0.00 0.00 52 1012.4
20260506161239 50 174 4.0 10.0 0.00 0.00 0.00 53 1012.4
20260506161146 50 271 2.0 10.0 0.00 0.00 0.00 53 1012.4
20260506161041 51 255 0.0 10.0 0.00 0.00 0.00 52 1012.1
20260506160922 51 300 4.0 10.0 0.00 0.00 0.00 53 1012.4
20260506160800 51 297 0.0 10.0 0.00 0.00 0.00 53 1012.4
20260506160710 52 293 3.0 10.0 0.00 0.00 0.00 54 1012.4
20260506160606 52 258 6.0 9.0 0.00 0.00 0.00 50 1012.4
20260506160459 52 242 2.0 6.0 0.00 0.00 0.00 53 1012.4
20260506160354 52 205 2.0 6.0 0.00 0.00 0.00 52 1012.4
20260506160248 52 330 4.0 6.0 0.00 0.00 0.00 53 1012.4
20260506160156 51 168 1.0 4.0 0.00 0.00 0.00 53 1012.1
20260506160050 52 16 1.0 4.0 0.00 0.00 0.00 53 1012.4
20260506155931 52 325 2.0 4.0 0.00 0.00 0.00 52 1012.4
20260506155825 52 355 2.0 4.0 0.00 0.00 0.00 56 1012.1
20260506155748 52 79 0.0 4.0 0.00 0.00 0.00 56 1012.1
20260506155719 52 204 1.0 4.0 0.00 0.00 0.00 55 1012.1
20260506155614 52 245 2.0 3.0 0.00 0.00 0.00 55 1012.4
20260506155508 52 225 2.0 6.0 0.00 0.00 0.00 56 1012.4
20260506155403 52 283 2.0 6.0 0.00 0.00 0.00 56 1012.4
20260506155256 52 272 1.0 6.0 0.00 0.00 0.00 56 1012.4
20260506155241 52 303 1.0 6.0 0.00 0.00 0.00 56 1012.4
20260506155151 52 333 2.0 6.0 0.00 0.00 0.00 54 1012.4
20260506155044 51 75 2.0 6.0 0.00 0.00 0.00 55 1012.1
20260506154940 51 142 0.0 6.0 0.00 0.00 0.00 56 1012.1
20260506154835 51 101 1.0 6.0 0.00 0.00 0.00 55 1012.1
20260506154735 51 46 3.0 6.0 0.00 0.00 0.00 54 1012.1
20260506154728 51 14 2.0 6.0 0.00 0.00 0.00 56 1012.1
20260506154622 51 80 0.0 6.0 0.00 0.00 0.00 56 1012.4
20260506154517 51 287 2.0 6.0 0.00 0.00 0.00 55 1012.1
20260506154412 50 221 1.0 4.0 0.00 0.00 0.00 58 1012.4
20260506154305 49 131 0.0 4.0 0.00 0.00 0.00 59 1012.4
20260506154228 49 126 1.0 4.0 0.00 0.00 0.00 59 1012.1
20260506154200 49 120 2.0 4.0 0.00 0.00 0.00 58 1012.1
20260506154055 50 151 2.0 4.0 0.00 0.00 0.00 57 1012.1
20260506153948 50 109 0.0 4.0 0.00 0.00 0.00 57 1012.4